Wetterdaten: aktuell Sonntag, 21.04.2019 12:58
Datum Zeit Temp. 2m Temp. 5cm Feuchte 2m Luftdruck Regen Wind Richtung Richtung Taupunkt Windchill Windben
21.04.2019 12:58 16,5 C 18,1 C 41 % 1025,9 hPa 0,0 l/m 7,5 km/h (2 Bft) SO 135 3,2 C 15,9 C 9,7 km/h (2 Bft)
21.04.2019 12:56 16,6 C 18,2 C 41 % 1025,9 hPa 0,0 l/m 7,2 km/h (2 Bft) O 90 3,3 C 16,2 C 11,6 km/h (2 Bft)
21.04.2019 12:54 16,4 C 17,7 C 41 % 1025,9 hPa 0,0 l/m 7,5 km/h (2 Bft) S 180 3,1 C 15,8 C 11,6 km/h (2 Bft)
21.04.2019 12:52 16,4 C 18,3 C 41 % 1025,9 hPa 0,0 l/m 8,0 km/h (2 Bft) SO 135 3,1 C 15,6 C 10,6 km/h (2 Bft)
21.04.2019 12:50 16,4 C 18,2 C 41 % 1025,9 hPa 0,0 l/m 8,7 km/h (2 Bft) N-NO 22 3,1 C 15,2 C 12,8 km/h (3 Bft)
21.04.2019 12:48 16,4 C 18,0 C 41 % 1025,9 hPa 0,0 l/m 9,2 km/h (2 Bft) SO 135 3,1 C 15,0 C 12,8 km/h (3 Bft)
21.04.2019 12:46 16,1 C 17,7 C 41 % 1025,9 hPa 0,0 l/m 9,4 km/h (2 Bft) NW 315 2,8 C 14,6 C 12,6 km/h (3 Bft)
21.04.2019 12:44 16,0 C 17,7 C 41 % 1025,9 hPa 0,0 l/m 9,7 km/h (2 Bft) O-NO 67 2,8 C 14,4 C 12,6 km/h (3 Bft)
21.04.2019 12:42 16,0 C 17,7 C 41 % 1025,9 hPa 0,0 l/m 9,4 km/h (2 Bft) O-NO 67 2,8 C 14,5 C 11,8 km/h (2 Bft)
21.04.2019 12:40 15,8 C 17,6 C 40 % 1026,2 hPa 0,0 l/m 8,4 km/h (2 Bft) O-NO 67 2,2 C 14,7 C 12,1 km/h (2 Bft)
21.04.2019 12:38 15,9 C 18,0 C 40 % 1026,2 hPa 0,0 l/m 8,9 km/h (2 Bft) O-NO 67 2,3 C 14,6 C 15,0 km/h (3 Bft)
21.04.2019 12:36 15,9 C 18,0 C 40 % 1026,2 hPa 0,0 l/m 9,2 km/h (2 Bft) SO 135 2,3 C 14,5 C 15,0 km/h (3 Bft)
21.04.2019 12:34 16,0 C 17,9 C 41 % 1026,2 hPa 0,0 l/m 9,2 km/h (2 Bft) S-SO 157 2,8 C 14,6 C 15,0 km/h (3 Bft)
21.04.2019 12:32 15,8 C 17,8 C 40 % 1026,2 hPa 0,0 l/m 9,4 km/h (2 Bft) SO 135 2,2 C 14,3 C 11,3 km/h (2 Bft)
21.04.2019 12:30 15,7 C 17,5 C 40 % 1026,2 hPa 0,0 l/m 10,4 km/h (2 Bft) S-SW 202 2,1 C 13,7 C 21,2 km/h (4 Bft)
21.04.2019 12:28 15,7 C 17,3 C 40 % 1026,2 hPa 0,0 l/m 10,6 km/h (2 Bft) O-NO 67 2,1 C 13,6 C 21,2 km/h (4 Bft)
21.04.2019 12:26 15,7 C 17,7 C 40 % 1026,2 hPa 0,0 l/m 10,6 km/h (2 Bft) SO 135 2,1 C 13,6 C 21,0 km/h (4 Bft)
21.04.2019 12:24 15,8 C 17,5 C 40 % 1026,2 hPa 0,0 l/m 10,4 km/h (2 Bft) SO 135 2,2 C 13,8 C 11,8 km/h (2 Bft)
21.04.2019 12:22 16,0 C 17,8 C 41 % 1026,2 hPa 0,0 l/m 9,7 km/h (2 Bft) O 90 2,8 C 14,4 C 12,1 km/h (2 Bft)
21.04.2019 12:20 16,0 C 17,9 C 41 % 1026,6 hPa 0,0 l/m 8,9 km/h (2 Bft) O-NO 67 2,8 C 14,7 C 12,1 km/h (2 Bft)
21.04.2019 12:18 16,0 C 17,8 C 40 % 1026,6 hPa 0,0 l/m 8,4 km/h (2 Bft) SO 135 2,4 C 15,0 C 12,1 km/h (2 Bft)
21.04.2019 12:16 16,0 C 17,8 C 40 % 1026,6 hPa 0,0 l/m 8,4 km/h (2 Bft) O-SO 112 2,4 C 15,0 C 12,1 km/h (2 Bft)
21.04.2019 12:14 16,1 C 18,2 C 41 % 1026,6 hPa 0,0 l/m 7,7 km/h (2 Bft) SO 135 2,8 C 15,4 C 10,6 km/h (2 Bft)
21.04.2019 12:12 16,3 C 18,4 C 41 % 1026,6 hPa 0,0 l/m 7,7 km/h (2 Bft) NO 45 3,0 C 15,6 C 10,6 km/h (2 Bft)
21.04.2019 12:10 16,0 C 17,9 C 41 % 1026,6 hPa 0,0 l/m 8,0 km/h (2 Bft) O-SO 112 2,8 C 15,2 C 8,2 km/h (2 Bft)
21.04.2019 12:08 16,1 C 18,1 C 41 % 1026,6 hPa 0,0 l/m 8,4 km/h (2 Bft) O 90 2,8 C 15,1 C 10,6 km/h (2 Bft)
21.04.2019 12:06 16,3 C 18,1 C 41 % 1026,6 hPa 0,0 l/m 8,7 km/h (2 Bft) O-SO 112 3,0 C 15,1 C 10,6 km/h (2 Bft)
21.04.2019 12:04 16,1 C 17,7 C 41 % 1026,6 hPa 0,0 l/m 8,9 km/h (2 Bft) O 90 2,8 C 14,8 C 13,3 km/h (3 Bft)
21.04.2019 12:02 15,9 C 17,6 C 40 % 1026,6 hPa 0,0 l/m 8,9 km/h (2 Bft) O 90 2,3 C 14,6 C 13,3 km/h (3 Bft)
21.04.2019 12:00 16,0 C 17,6 C 41 % 1026,7 hPa 0,0 l/m 8,7 km/h (2 Bft) SO 135 2,8 C 14,8 C 11,8 km/h (2 Bft)
21.04.2019 11:58 16,1 C 17,8 C 41 % 1026,7 hPa 0,0 l/m 8,7 km/h (2 Bft) SO 135 2,8 C 14,9 C 14,2 km/h (3 Bft)
21.04.2019 11:56 16,1 C 17,9 C 41 % 1026,7 hPa 0,0 l/m 8,7 km/h (2 Bft) SO 135 2,8 C 14,9 C 14,2 km/h (3 Bft)
21.04.2019 11:54 16,3 C 18,0 C 42 % 1026,7 hPa 0,0 l/m 7,7 km/h (2 Bft) O-NO 67 3,4 C 15,6 C 13,5 km/h (3 Bft)
21.04.2019 11:52 16,2 C 18,0 C 42 % 1026,7 hPa 0,0 l/m 7,7 km/h (2 Bft) S-SW 202 3,3 C 15,5 C 14,2 km/h (3 Bft)
21.04.2019 11:50 16,2 C 18,1 C 42 % 1026,7 hPa 0,0 l/m 8,0 km/h (2 Bft) O-NO 67 3,3 C 15,4 C 14,7 km/h (3 Bft)
21.04.2019 11:48 16,2 C 17,6 C 42 % 1026,7 hPa 0,0 l/m 7,7 km/h (2 Bft) N-NO 22 3,3 C 15,5 C 14,7 km/h (3 Bft)
21.04.2019 11:46 16,0 C 17,9 C 42 % 1026,7 hPa 0,0 l/m 7,2 km/h (2 Bft) N-NO 22 3,1 C 15,6 C 9,9 km/h (2 Bft)
21.04.2019 11:44 15,8 C 17,6 C 41 % 1026,7 hPa 0,0 l/m 7,2 km/h (2 Bft) N-NO 22 2,6 C 15,4 C 9,2 km/h (2 Bft)
21.04.2019 11:42 15,9 C 17,6 C 42 % 1026,7 hPa 0,0 l/m 7,0 km/h (2 Bft) O-SO 112 3,0 C 15,6 C 12,1 km/h (2 Bft)
21.04.2019 11:40 16,1 C 18,0 C 42 % 1027,0 hPa 0,0 l/m 7,2 km/h (2 Bft) O-SO 112 3,2 C 15,7 C 12,1 km/h (2 Bft)
21.04.2019 11:38 15,8 C 17,2 C 42 % 1027,0 hPa 0,0 l/m 7,0 km/h (2 Bft) SO 135 2,9 C 15,5 C 10,1 km/h (2 Bft)
21.04.2019 11:36 16,0 C 17,4 C 43 % 1027,0 hPa 0,0 l/m 7,0 km/h (2 Bft) NO 45 3,4 C 15,7 C 10,1 km/h (2 Bft)
21.04.2019 11:34 15,8 C 17,7 C 43 % 1027,0 hPa 0,0 l/m 6,0 km/h (2 Bft) O 90 3,3 C 15,8 C 7,5 km/h (2 Bft)
21.04.2019 11:32 15,9 C 17,6 C 44 % 1027,0 hPa 0,0 l/m 5,8 km/h (2 Bft) O-NO 67 3,7 C 15,9 C 8,2 km/h (2 Bft)
21.04.2019 11:30 16,1 C 17,9 C 44 % 1027,0 hPa 0,0 l/m 5,3 km/h (1 Bft) SO 135 3,8 C 16,1 C 8,2 km/h (2 Bft)
21.04.2019 11:28 16,2 C 17,8 C 44 % 1027,0 hPa 0,0 l/m 5,1 km/h (1 Bft) NO 45 3,9 C 16,2 C 9,4 km/h (2 Bft)
21.04.2019 11:26 16,1 C 17,7 C 44 % 1027,0 hPa 0,0 l/m 5,3 km/h (1 Bft) NO 45 3,8 C 16,1 C 9,4 km/h (2 Bft)
21.04.2019 11:24 16,0 C 17,5 C 44 % 1027,0 hPa 0,0 l/m 5,6 km/h (1 Bft) O-NO 67 3,8 C 16,0 C 10,9 km/h (2 Bft)
21.04.2019 11:22 15,9 C 17,4 C 45 % 1027,0 hPa 0,0 l/m 6,0 km/h (2 Bft) O 90 4,0 C 15,9 C 10,9 km/h (2 Bft)
21.04.2019 11:20 15,9 C 17,4 C 45 % 1026,9 hPa 0,0 l/m 6,0 km/h (2 Bft) O-SO 112 4,0 C 15,9 C 8,4 km/h (2 Bft)
21.04.2019 11:18 15,9 C 17,3 C 45 % 1026,9 hPa 0,0 l/m 6,3 km/h (2 Bft) NW 315 4,0 C 15,9 C 5,3 km/h (1 Bft)
21.04.2019 11:16 15,8 C 17,3 C 45 % 1026,9 hPa 0,0 l/m 6,5 km/h (2 Bft) O-NO 67 3,9 C 15,8 C 6,8 km/h (2 Bft)
21.04.2019 11:14 15,9 C 17,7 C 45 % 1026,9 hPa 0,0 l/m 6,8 km/h (2 Bft) O-NO 67 4,0 C 15,7 C 6,8 km/h (2 Bft)
21.04.2019 11:12 15,7 C 17,3 C 45 % 1026,9 hPa 0,0 l/m 6,3 km/h (2 Bft) N-NW 337 3,8 C 15,7 C 7,0 km/h (2 Bft)
21.04.2019 11:10 15,2 C 16,7 C 44 % 1026,9 hPa 0,0 l/m 6,5 km/h (2 Bft) SO 135 3,0 C 15,2 C 7,2 km/h (2 Bft)
21.04.2019 11:08 15,4 C 16,6 C 44 % 1026,9 hPa 0,0 l/m 7,0 km/h (2 Bft) SO 135 3,2 C 15,1 C 11,8 km/h (2 Bft)
21.04.2019 11:06 15,4 C 16,7 C 44 % 1026,9 hPa 0,0 l/m 7,2 km/h (2 Bft) O-SO 112 3,2 C 15,0 C 11,8 km/h (2 Bft)
21.04.2019 11:04 15,5 C 17,1 C 45 % 1026,9 hPa 0,0 l/m 6,3 km/h (2 Bft) O-SO 112 3,6 C 15,5 C 10,1 km/h (2 Bft)
21.04.2019 11:02 15,5 C 17,0 C 45 % 1026,9 hPa 0,0 l/m 7,2 km/h (2 Bft) O 90 3,6 C 15,1 C 13,3 km/h (3 Bft)
21.04.2019 11:00 15,4 C 16,9 C 45 % 1027,2 hPa 0,0 l/m 7,2 km/h (2 Bft) N-NW 337 3,5 C 15,0 C 13,3 km/h (3 Bft)
21.04.2019 10:58 15,4 C 17,6 C 45 % 1027,2 hPa 0,0 l/m 6,5 km/h (2 Bft) O-NO 67 3,5 C 15,4 C 8,7 km/h (2 Bft)
21.04.2019 10:56 15,3 C 17,1 C 45 % 1027,2 hPa 0,0 l/m 6,3 km/h (2 Bft) O-SO 112 3,4 C 15,3 C 7,5 km/h (2 Bft)
21.04.2019 10:54 15,3 C 17,0 C 45 % 1027,2 hPa 0,0 l/m 6,3 km/h (2 Bft) SO 135 3,4 C 15,3 C 11,3 km/h (2 Bft)
21.04.2019 10:52 15,3 C 17,2 C 45 % 1027,2 hPa 0,0 l/m 6,3 km/h (2 Bft) O-SO 112 3,4 C 15,3 C 11,3 km/h (2 Bft)
21.04.2019 10:50 15,4 C 17,3 C 46 % 1027,2 hPa 0,0 l/m 5,8 km/h (2 Bft) O-NO 67 3,8 C 15,4 C 10,1 km/h (2 Bft)
21.04.2019 10:48 15,3 C 17,5 C 46 % 1027,2 hPa 0,0 l/m 6,0 km/h (2 Bft) SO 135 3,8 C 15,3 C 6,3 km/h (2 Bft)
21.04.2019 10:46 15,4 C 17,9 C 46 % 1027,2 hPa 0,0 l/m 6,0 km/h (2 Bft) NO 45 3,8 C 15,4 C 9,7 km/h (2 Bft)
21.04.2019 10:44 15,0 C 17,3 C 45 % 1027,2 hPa 0,0 l/m 6,5 km/h (2 Bft) S-SO 157 3,2 C 15,0 C 9,7 km/h (2 Bft)
21.04.2019 10:42 15,0 C 17,4 C 45 % 1027,2 hPa 0,0 l/m 5,8 km/h (2 Bft) O-SO 112 3,2 C 15,0 C 8,0 km/h (2 Bft)
21.04.2019 10:40 15,2 C 18,1 C 46 % 1027,2 hPa 0,0 l/m 5,8 km/h (2 Bft) O-SO 112 3,7 C 15,2 C 5,1 km/h (1 Bft)
21.04.2019 10:38 14,7 C 17,5 C 45 % 1027,2 hPa 0,0 l/m 6,0 km/h (2 Bft) NW 315 2,9 C 14,7 C 7,5 km/h (2 Bft)
21.04.2019 10:36 14,8 C 18,0 C 46 % 1027,2 hPa 0,0 l/m 6,0 km/h (2 Bft) O-SO 112 3,3 C 14,8 C 8,9 km/h (2 Bft)
21.04.2019 10:34 14,6 C 17,7 C 46 % 1027,2 hPa 0,0 l/m 6,0 km/h (2 Bft) NO 45 3,1 C 14,6 C 8,9 km/h (2 Bft)
21.04.2019 10:32 14,7 C 17,7 C 46 % 1027,2 hPa 0,0 l/m 6,8 km/h (2 Bft) O-NO 67 3,2 C 14,5 C 9,2 km/h (2 Bft)
21.04.2019 10:30 14,5 C 17,6 C 45 % 1027,2 hPa 0,0 l/m 7,2 km/h (2 Bft) O-NO 67 2,7 C 14,0 C 9,2 km/h (2 Bft)
21.04.2019 10:28 14,3 C 17,6 C 45 % 1027,2 hPa 0,0 l/m 7,0 km/h (2 Bft) SO 135 2,5 C 13,9 C 8,7 km/h (2 Bft)
21.04.2019 10:26 14,4 C 17,6 C 45 % 1027,2 hPa 0,0 l/m 7,2 km/h (2 Bft) S-SW 202 2,6 C 13,9 C 10,1 km/h (2 Bft)
21.04.2019 10:24 14,4 C 18,0 C 46 % 1027,2 hPa 0,0 l/m 7,5 km/h (2 Bft) SO 135 2,9 C 13,8 C 11,1 km/h (2 Bft)
21.04.2019 10:22 14,3 C 17,5 C 45 % 1027,2 hPa 0,0 l/m 6,8 km/h (2 Bft) O-SO 112 2,5 C 14,1 C 11,1 km/h (2 Bft)
21.04.2019 10:20 14,4 C 17,9 C 46 % 1027,4 hPa 0,0 l/m 6,3 km/h (2 Bft) O-NO 67 2,9 C 14,4 C 9,9 km/h (2 Bft)
21.04.2019 10:18 14,3 C 17,8 C 46 % 1027,4 hPa 0,0 l/m 6,3 km/h (2 Bft) N-NO 22 2,8 C 14,3 C 9,9 km/h (2 Bft)
21.04.2019 10:16 14,3 C 17,8 C 46 % 1027,4 hPa 0,0 l/m 6,3 km/h (2 Bft) O-SO 112 2,8 C 14,3 C 9,9 km/h (2 Bft)
21.04.2019 10:14 14,3 C 17,9 C 46 % 1027,4 hPa 0,0 l/m 6,3 km/h (2 Bft) N-NO 22 2,8 C 14,3 C 8,7 km/h (2 Bft)
21.04.2019 10:12 14,1 C 17,9 C 46 % 1027,4 hPa 0,0 l/m 6,5 km/h (2 Bft) NO 45 2,7 C 14,1 C 8,7 km/h (2 Bft)
21.04.2019 10:10 14,0 C 17,6 C 46 % 1027,4 hPa 0,0 l/m 7,0 km/h (2 Bft) O 90 2,6 C 13,6 C 8,7 km/h (2 Bft)
21.04.2019 10:08 13,8 C 17,8 C 47 % 1027,4 hPa 0,0 l/m 6,8 km/h (2 Bft) O-NO 67 2,7 C 13,6 C 8,7 km/h (2 Bft)
21.04.2019 10:06 13,8 C 17,4 C 46 % 1027,4 hPa 0,0 l/m 6,8 km/h (2 Bft) O-NO 67 2,4 C 13,6 C 8,0 km/h (2 Bft)
21.04.2019 10:04 13,6 C 17,2 C 46 % 1027,4 hPa 0,0 l/m 6,5 km/h (2 Bft) O-SO 112 2,2 C 13,6 C 8,0 km/h (2 Bft)
21.04.2019 10:02 13,8 C 17,6 C 47 % 1027,4 hPa 0,0 l/m 6,3 km/h (2 Bft) NO 45 2,7 C 13,8 C 7,0 km/h (2 Bft)
21.04.2019 10:00 13,6 C 17,7 C 47 % 1027,4 hPa 0,0 l/m 6,3 km/h (2 Bft) SO 135 2,5 C 13,6 C 7,0 km/h (2 Bft)
21.04.2019 09:58 13,5 C 17,6 C 47 % 1027,4 hPa 0,0 l/m 6,0 km/h (2 Bft) SO 135 2,4 C 13,5 C 9,7 km/h (2 Bft)
21.04.2019 09:56 13,6 C 17,6 C 47 % 1027,4 hPa 0,0 l/m 5,8 km/h (2 Bft) O-NO 67 2,5 C 13,6 C 9,7 km/h (2 Bft)
21.04.2019 09:54 13,4 C 17,3 C 47 % 1027,4 hPa 0,0 l/m 5,6 km/h (1 Bft) NO 45 2,3 C 13,4 C 6,5 km/h (2 Bft)
21.04.2019 09:52 13,5 C 17,7 C 47 % 1027,4 hPa 0,0 l/m 5,3 km/h (1 Bft) O-NO 67 2,4 C 13,5 C 7,2 km/h (2 Bft)
21.04.2019 09:50 13,4 C 17,1 C 47 % 1027,4 hPa 0,0 l/m 5,1 km/h (1 Bft) O-NO 67 2,3 C 13,4 C 7,2 km/h (2 Bft)
21.04.2019 09:48 13,4 C 17,4 C 48 % 1027,4 hPa 0,0 l/m 5,3 km/h (1 Bft) O-NO 67 2,6 C 13,4 C 6,8 km/h (2 Bft)
21.04.2019 09:46 13,3 C 16,9 C 48 % 1027,4 hPa 0,0 l/m 5,1 km/h (1 Bft) O-NO 67 2,5 C 13,3 C 5,3 km/h (1 Bft)
21.04.2019 09:44 13,0 C 16,7 C 47 % 1027,4 hPa 0,0 l/m 4,8 km/h (1 Bft) O-SO 112 2,0 C 13,0 C 6,0 km/h (2 Bft)
21.04.2019 09:42 13,2 C 17,2 C 48 % 1027,4 hPa 0,0 l/m 4,3 km/h (1 Bft) O-NO 67 2,4 C 13,2 C 6,5 km/h (2 Bft)
21.04.2019 09:40 13,2 C 17,0 C 48 % 1027,5 hPa 0,0 l/m 4,3 km/h (1 Bft) O-NO 67 2,4 C 13,2 C 6,5 km/h (2 Bft)
21.04.2019 09:38 13,0 C 17,1 C 49 % 1027,5 hPa 0,0 l/m 4,1 km/h (1 Bft) O-NO 67 2,5 C 13,0 C 6,3 km/h (2 Bft)
21.04.2019 09:36 13,0 C 16,8 C 49 % 1027,5 hPa 0,0 l/m 4,1 km/h (1 Bft) NO 45 2,5 C 13,0 C 5,1 km/h (1 Bft)
21.04.2019 09:34 12,9 C 16,9 C 49 % 1027,5 hPa 0,0 l/m 4,1 km/h (1 Bft) O-SO 112 2,5 C 12,9 C 5,1 km/h (1 Bft)
21.04.2019 09:32 12,7 C 16,9 C 49 % 1027,5 hPa 0,0 l/m 4,3 km/h (1 Bft) O-SO 112 2,3 C 12,7 C 4,6 km/h (1 Bft)
21.04.2019 09:30 12,6 C 16,5 C 49 % 1027,5 hPa 0,0 l/m 4,3 km/h (1 Bft) O-NO 67 2,2 C 12,6 C 5,1 km/h (1 Bft)
21.04.2019 09:28 12,7 C 17,1 C 50 % 1027,5 hPa 0,0 l/m 4,3 km/h (1 Bft) O-NO 67 2,6 C 12,7 C 5,8 km/h (2 Bft)
21.04.2019 09:26 12,5 C 16,4 C 50 % 1027,5 hPa 0,0 l/m 4,3 km/h (1 Bft) O-NO 67 2,4 C 12,5 C 5,8 km/h (2 Bft)
21.04.2019 09:24 12,3 C 16,1 C 50 % 1027,5 hPa 0,0 l/m 4,1 km/h (1 Bft) O-NO 67 2,2 C 12,3 C 5,8 km/h (2 Bft)
21.04.2019 09:22 12,2 C 16,1 C 50 % 1027,5 hPa 0,0 l/m 4,3 km/h (1 Bft) O-SO 112 2,1 C 12,2 C 5,8 km/h (2 Bft)
21.04.2019 09:20 12,3 C 16,7 C 50 % 1027,6 hPa 0,0 l/m 4,3 km/h (1 Bft) O-NO 67 2,2 C 12,3 C 4,8 km/h (1 Bft)
21.04.2019 09:18 12,4 C 17,0 C 51 % 1027,6 hPa 0,0 l/m 4,6 km/h (1 Bft) NO 45 2,6 C 12,4 C 4,8 km/h (1 Bft)
21.04.2019 09:16 12,1 C 16,3 C 50 % 1027,6 hPa 0,0 l/m 4,6 km/h (1 Bft) O-SO 112 2,0 C 12,1 C 4,8 km/h (1 Bft)
21.04.2019 09:14 12,1 C 16,2 C 50 % 1027,6 hPa 0,0 l/m 4,6 km/h (1 Bft) O-SO 112 2,0 C 12,1 C 5,1 km/h (1 Bft)
21.04.2019 09:12 11,9 C 16,2 C 51 % 1027,6 hPa 0,0 l/m 4,3 km/h (1 Bft) O-NO 67 2,1 C 11,9 C 7,0 km/h (2 Bft)
21.04.2019 09:10 11,8 C 16,1 C 51 % 1027,6 hPa 0,0 l/m 4,3 km/h (1 Bft) SO 135 2,0 C 11,8 C 7,0 km/h (2 Bft)
21.04.2019 09:08 11,8 C 15,8 C 51 % 1027,6 hPa 0,0 l/m 4,3 km/h (1 Bft) O-SO 112 2,0 C 11,8 C 5,1 km/h (1 Bft)
21.04.2019 09:06 11,7 C 16,0 C 52 % 1027,6 hPa 0,0 l/m 4,3 km/h (1 Bft) O-SO 112 2,2 C 11,7 C 6,0 km/h (2 Bft)
21.04.2019 09:04 11,6 C 15,5 C 52 % 1027,6 hPa 0,0 l/m 3,9 km/h (1 Bft) O-SO 112 2,1 C 11,6 C 6,0 km/h (2 Bft)
21.04.2019 09:02 11,6 C 15,3 C 52 % 1027,6 hPa 0,0 l/m 3,9 km/h (1 Bft) SO 135 2,1 C 11,6 C 4,3 km/h (1 Bft)
21.04.2019 09:00 11,5 C 15,4 C 52 % 1027,6 hPa 0,0 l/m 3,9 km/h (1 Bft) SO 135 2,0 C 11,5 C 4,3 km/h (1 Bft)
21.04.2019 08:58 11,6 C 15,3 C 52 % 1027,6 hPa 0,0 l/m 3,9 km/h (1 Bft) SO 135 2,1 C 11,6 C 5,3 km/h (1 Bft)
21.04.2019 08:56 11,6 C 15,7 C 52 % 1027,6 hPa 0,0 l/m 3,6 km/h (1 Bft) O-SO 112 2,1 C 11,6 C 5,3 km/h (1 Bft)
21.04.2019 08:54 11,6 C 15,5 C 52 % 1027,6 hPa 0,0 l/m 3,9 km/h (1 Bft) O-NO 67 2,1 C 11,6 C 6,0 km/h (2 Bft)
21.04.2019 08:52 11,5 C 14,9 C 52 % 1027,6 hPa 0,0 l/m 3,9 km/h (1 Bft) O-NO 67 2,0 C 11,5 C 6,0 km/h (2 Bft)
21.04.2019 08:50 11,4 C 15,0 C 52 % 1027,6 hPa 0,0 l/m 3,4 km/h (1 Bft) O-NO 67 1,9 C 11,4 C 3,6 km/h (1 Bft)
21.04.2019 08:48 11,4 C 15,2 C 53 % 1027,6 hPa 0,0 l/m 3,4 km/h (1 Bft) O-NO 67 2,2 C 11,4 C 5,3 km/h (1 Bft)
21.04.2019 08:46 11,3 C 14,9 C 52 % 1027,6 hPa 0,0 l/m 3,4 km/h (1 Bft) O-SO 112 1,8 C 11,3 C 5,3 km/h (1 Bft)
21.04.2019 08:44 11,3 C 14,7 C 53 % 1027,6 hPa 0,0 l/m 3,1 km/h (1 Bft) O 90 2,1 C 11,3 C 5,1 km/h (1 Bft)
21.04.2019 08:42 11,5 C 15,0 C 53 % 1027,6 hPa 0,0 l/m 2,9 km/h (1 Bft) O-NO 67 2,3 C 11,5 C 3,4 km/h (1 Bft)
21.04.2019 08:40 11,5 C 15,0 C 53 % 1027,6 hPa 0,0 l/m 2,9 km/h (1 Bft) O-NO 67 2,3 C 11,5 C 4,3 km/h (1 Bft)
21.04.2019 08:38 11,6 C 15,3 C 54 % 1027,6 hPa 0,0 l/m 2,9 km/h (1 Bft) N-NO 22 2,6 C 11,6 C 4,3 km/h (1 Bft)
21.04.2019 08:36 11,4 C 14,9 C 54 % 1027,6 hPa 0,0 l/m 2,7 km/h (1 Bft) O-NO 67 2,4 C 11,4 C 4,1 km/h (1 Bft)
21.04.2019 08:34 11,3 C 14,9 C 54 % 1027,6 hPa 0,0 l/m 2,2 km/h (1 Bft) O-NO 67 2,3 C 11,3 C 3,9 km/h (1 Bft)
21.04.2019 08:32 11,3 C 15,0 C 55 % 1027,6 hPa 0,0 l/m 1,9 km/h (1 Bft) NO 45 2,6 C 11,3 C 4,6 km/h (1 Bft)
21.04.2019 08:30 11,1 C 15,5 C 55 % 1027,6 hPa 0,0 l/m 1,7 km/h (1 Bft) SO 135 2,4 C 11,1 C 4,6 km/h (1 Bft)
21.04.2019 08:28 11,0 C 15,7 C 55 % 1027,6 hPa 0,0 l/m 1,2 km/h (1 Bft) O-SO 112 2,3 C 11,0 C 4,3 km/h (1 Bft)
21.04.2019 08:26 10,8 C 15,7 C 55 % 1027,6 hPa 0,0 l/m 1,7 km/h (1 Bft) SO 135 2,1 C 10,8 C 4,3 km/h (1 Bft)
21.04.2019 08:24 10,7 C 15,3 C 55 % 1027,6 hPa 0,0 l/m 2,4 km/h (1 Bft) S 180 2,0 C 10,7 C 2,7 km/h (1 Bft)
21.04.2019 08:22 10,5 C 14,8 C 56 % 1027,6 hPa 0,0 l/m 2,9 km/h (1 Bft) SO 135 2,1 C 10,5 C 2,7 km/h (1 Bft)
21.04.2019 08:20 10,2 C 14,3 C 56 % 1027,7 hPa 0,0 l/m 2,4 km/h (1 Bft) SO 135 1,8 C 10,2 C 4,1 km/h (1 Bft)
21.04.2019 08:18 9,9 C 13,7 C 57 % 1027,7 hPa 0,0 l/m 2,9 km/h (1 Bft) SO 135 1,8 C 9,9 C 5,6 km/h (1 Bft)
21.04.2019 08:16 9,2 C 11,5 C 57 % 1027,7 hPa 0,0 l/m 3,6 km/h (1 Bft) S 180 1,1 C 9,2 C 7,0 km/h (2 Bft)
21.04.2019 08:14 9,3 C 12,0 C 58 % 1027,7 hPa 0,0 l/m 3,6 km/h (1 Bft) SW 225 1,5 C 9,3 C 7,0 km/h (2 Bft)
21.04.2019 08:12 9,4 C 13,1 C 58 % 1027,7 hPa 0,0 l/m 4,6 km/h (1 Bft) SW 225 1,6 C 9,4 C 0,0 km/h (0 Bft)
21.04.2019 08:10 8,9 C 12,0 C 58 % 1027,7 hPa 0,0 l/m 5,6 km/h (1 Bft) S-SW 202 1,1 C 8,9 C 4,3 km/h (1 Bft)
21.04.2019 08:08 8,3 C 11,5 C 58 % 1027,7 hPa 0,0 l/m 6,8 km/h (2 Bft) S 180 0,5 C 8,0 C 5,8 km/h (2 Bft)
21.04.2019 08:06 8,1 C 11,2 C 58 % 1027,7 hPa 0,0 l/m 7,5 km/h (2 Bft) SW 225 0,3 C 7,2 C 7,5 km/h (2 Bft)
21.04.2019 08:04 7,9 C 10,5 C 59 % 1027,7 hPa 0,0 l/m 8,0 km/h (2 Bft) SW 225 0,4 C 6,6 C 10,1 km/h (2 Bft)
21.04.2019 08:02 7,5 C 10,4 C 59 % 1027,7 hPa 0,0 l/m 8,4 km/h (2 Bft) S 180 0,0 C 5,9 C 10,1 km/h (2 Bft)
21.04.2019 08:00 7,5 C 10,3 C 59 % 1027,6 hPa 0,0 l/m 8,7 km/h (2 Bft) SW 225 0,0 C 5,7 C 8,4 km/h (2 Bft)
21.04.2019 07:58 7,3 C 9,9 C 59 % 1027,6 hPa 0,0 l/m 8,4 km/h (2 Bft) S 180 -0,2 C 5,7 C 8,4 km/h (2 Bft)
21.04.2019 07:56 7,3 C 10,0 C 59 % 1027,6 hPa 0,0 l/m 8,2 km/h (2 Bft) SW 225 -0,2 C 5,9 C 8,2 km/h (2 Bft)
21.04.2019 07:54 7,4 C 10,6 C 59 % 1027,6 hPa 0,0 l/m 8,7 km/h (2 Bft) S-SW 202 -0,1 C 5,6 C 11,6 km/h (2 Bft)
21.04.2019 07:52 7,4 C 10,6 C 59 % 1027,6 hPa 0,0 l/m 9,9 km/h (2 Bft) S 180 -0,1 C 4,8 C 11,6 km/h (2 Bft)
21.04.2019 07:50 7,1 C 9,8 C 59 % 1027,6 hPa 0,0 l/m 9,9 km/h (2 Bft) W-SW 247 -0,4 C 4,5 C 10,4 km/h (2 Bft)
21.04.2019 07:48 6,9 C 9,5 C 60 % 1027,6 hPa 0,0 l/m 11,3 km/h (2 Bft) SW 225 -0,3 C 3,4 C 11,3 km/h (2 Bft)
21.04.2019 07:46 6,5 C 9,2 C 60 % 1027,6 hPa 0,0 l/m 12,1 km/h (2 Bft) W-SW 247 -0,7 C 2,4 C 12,6 km/h (3 Bft)
21.04.2019 07:44 6,3 C 8,6 C 60 % 1027,6 hPa 0,0 l/m 13,0 km/h (3 Bft) W-SW 247 -0,9 C 1,7 C 15,2 km/h (3 Bft)
21.04.2019 07:42 6,2 C 8,4 C 60 % 1027,6 hPa 0,0 l/m 12,8 km/h (3 Bft) S 180 -1,0 C 1,7 C 15,2 km/h (3 Bft)
21.04.2019 07:40 6,2 C 8,5 C 60 % 1027,6 hPa 0,0 l/m 13,0 km/h (3 Bft) W-SW 247 -1,0 C 1,6 C 17,1 km/h (3 Bft)
21.04.2019 07:38 6,2 C 8,7 C 60 % 1027,6 hPa 0,0 l/m 13,0 km/h (3 Bft) SW 225 -1,0 C 1,6 C 17,1 km/h (3 Bft)
21.04.2019 07:36 6,0 C 8,4 C 60 % 1027,6 hPa 0,0 l/m 13,5 km/h (3 Bft) SW 225 -1,2 C 1,1 C 16,2 km/h (3 Bft)
21.04.2019 07:34 5,9 C 7,7 C 61 % 1027,6 hPa 0,0 l/m 13,5 km/h (3 Bft) S 180 -1,0 C 0,9 C 16,2 km/h (3 Bft)
21.04.2019 07:32 5,9 C 7,6 C 61 % 1027,6 hPa 0,0 l/m 14,0 km/h (3 Bft) W-SW 247 -1,0 C 0,7 C 13,8 km/h (3 Bft)
21.04.2019 07:30 5,7 C 7,5 C 62 % 1027,6 hPa 0,0 l/m 14,2 km/h (3 Bft) SW 225 -1,0 C 0,3 C 15,7 km/h (3 Bft)
21.04.2019 07:28 5,7 C 7,5 C 62 % 1027,6 hPa 0,0 l/m 14,2 km/h (3 Bft) SW 225 -1,0 C 0,3 C 16,9 km/h (3 Bft)
21.04.2019 07:26 5,7 C 7,5 C 62 % 1027,6 hPa 0,0 l/m 14,5 km/h (3 Bft) SW 225 -1,0 C 0,2 C 16,9 km/h (3 Bft)
21.04.2019 07:24 5,5 C 7,4 C 62 % 1027,6 hPa 0,0 l/m 14,7 km/h (3 Bft) W-SW 247 -1,2 C -0,2 C 16,2 km/h (3 Bft)
21.04.2019 07:22 5,4 C 7,3 C 62 % 1027,6 hPa 0,0 l/m 15,0 km/h (3 Bft) W-SW 247 -1,3 C -0,4 C 16,2 km/h (3 Bft)
21.04.2019 07:20 5,2 C 6,7 C 62 % 1027,6 hPa 0,0 l/m 15,0 km/h (3 Bft) S-SW 202 -1,5 C -0,7 C 15,2 km/h (3 Bft)
21.04.2019 07:18 5,1 C 6,8 C 62 % 1027,6 hPa 0,0 l/m 15,0 km/h (3 Bft) S 180 -1,6 C -0,8 C 17,4 km/h (3 Bft)
21.04.2019 07:16 4,9 C 6,5 C 62 % 1027,6 hPa 0,0 l/m 15,0 km/h (3 Bft) SW 225 -1,8 C -1,0 C 17,4 km/h (3 Bft)
21.04.2019 07:14 4,7 C 6,0 C 62 % 1027,6 hPa 0,0 l/m 14,7 km/h (3 Bft) W-SW 247 -1,9 C -1,1 C 16,4 km/h (3 Bft)
21.04.2019 07:12 4,6 C 6,0 C 62 % 1027,6 hPa 0,0 l/m 14,5 km/h (3 Bft) SW 225 -2,0 C -1,1 C 16,7 km/h (3 Bft)
21.04.2019 07:10 4,5 C 5,7 C 62 % 1027,6 hPa 0,0 l/m 14,5 km/h (3 Bft) W-SW 247 -2,1 C -1,3 C 16,7 km/h (3 Bft)
21.04.2019 07:08 4,4 C 5,6 C 62 % 1027,6 hPa 0,0 l/m 14,7 km/h (3 Bft) S 180 -2,2 C -1,5 C 15,4 km/h (3 Bft)
21.04.2019 07:06 4,4 C 5,5 C 62 % 1027,6 hPa 0,0 l/m 15,2 km/h (3 Bft) S 180 -2,2 C -1,8 C 16,9 km/h (3 Bft)
21.04.2019 07:04 4,4 C 5,4 C 62 % 1027,6 hPa 0,0 l/m 15,7 km/h (3 Bft) SW 225 -2,2 C -2,0 C 16,9 km/h (3 Bft)
21.04.2019 07:02 4,4 C 5,2 C 62 % 1027,6 hPa 0,0 l/m 15,4 km/h (3 Bft) O 90 -2,2 C -1,9 C 16,9 km/h (3 Bft)
21.04.2019 07:00 4,2 C 5,1 C 62 % 1027,5 hPa 0,0 l/m 15,7 km/h (3 Bft) W-SW 247 -2,4 C -2,3 C 17,4 km/h (3 Bft)
21.04.2019 06:58 4,2 C 5,0 C 62 % 1027,5 hPa 0,0 l/m 15,7 km/h (3 Bft) SW 225 -2,4 C -2,3 C 18,8 km/h (3 Bft)
21.04.2019 06:56 4,2 C 5,0 C 62 % 1027,5 hPa 0,0 l/m 15,7 km/h (3 Bft) W-SW 247 -2,4 C -2,3 C 18,8 km/h (3 Bft)
21.04.2019 06:54 4,2 C 4,9 C 62 % 1027,5 hPa 0,0 l/m 15,7 km/h (3 Bft) SW 225 -2,4 C -2,3 C 17,1 km/h (3 Bft)
21.04.2019 06:52 4,2 C 4,8 C 62 % 1027,5 hPa 0,0 l/m 15,4 km/h (3 Bft) S 180 -2,4 C -2,1 C 18,8 km/h (3 Bft)
21.04.2019 06:50 4,2 C 4,5 C 62 % 1027,5 hPa 0,0 l/m 15,2 km/h (3 Bft) W-SW 247 -2,4 C -2,0 C 18,8 km/h (3 Bft)
21.04.2019 06:48 4,2 C 4,5 C 62 % 1027,5 hPa 0,0 l/m 15,4 km/h (3 Bft) W-SW 247 -2,4 C -2,1 C 17,4 km/h (3 Bft)
21.04.2019 06:46 4,1 C 4,3 C 62 % 1027,5 hPa 0,0 l/m 15,4 km/h (3 Bft) W-SW 247 -2,5 C -2,2 C 17,6 km/h (3 Bft)
21.04.2019 06:44 4,1 C 4,1 C 62 % 1027,5 hPa 0,0 l/m 15,0 km/h (3 Bft) SW 225 -2,5 C -2,0 C 17,6 km/h (3 Bft)
21.04.2019 06:42 4,1 C 4,0 C 62 % 1027,5 hPa 0,0 l/m 15,2 km/h (3 Bft) W-SW 247 -2,5 C -2,1 C 15,4 km/h (3 Bft)
21.04.2019 06:40 4,1 C 4,0 C 62 % 1027,5 hPa 0,0 l/m 15,2 km/h (3 Bft) SW 225 -2,5 C -2,1 C 15,7 km/h (3 Bft)
21.04.2019 06:38 4,0 C 3,7 C 62 % 1027,5 hPa 0,0 l/m 15,0 km/h (3 Bft) W-SW 247 -2,6 C -2,1 C 16,4 km/h (3 Bft)
21.04.2019 06:36 4,1 C 3,6 C 62 % 1027,5 hPa 0,0 l/m 14,7 km/h (3 Bft) W-SW 247 -2,5 C -1,9 C 16,4 km/h (3 Bft)
21.04.2019 06:34 4,0 C 3,2 C 62 % 1027,5 hPa 0,0 l/m 14,5 km/h (3 Bft) SW 225 -2,6 C -1,9 C 16,9 km/h (3 Bft)
21.04.2019 06:32 4,0 C 2,8 C 61 % 1027,5 hPa 0,0 l/m 13,8 km/h (3 Bft) SW 225 -2,8 C -1,5 C 16,9 km/h (3 Bft)
21.04.2019 06:30 4,1 C 2,8 C 61 % 1027,5 hPa 0,0 l/m 13,5 km/h (3 Bft) SW 225 -2,7 C -1,2 C 16,2 km/h (3 Bft)
21.04.2019 06:28 4,2 C 2,9 C 61 % 1027,5 hPa 0,0 l/m 13,5 km/h (3 Bft) SW 225 -2,6 C -1,1 C 15,7 km/h (3 Bft)
21.04.2019 06:26 4,2 C 2,9 C 61 % 1027,5 hPa 0,0 l/m 13,3 km/h (3 Bft) SW 225 -2,6 C -1,0 C 15,7 km/h (3 Bft)
21.04.2019 06:24 4,4 C 2,9 C 61 % 1027,5 hPa 0,0 l/m 14,0 km/h (3 Bft) W-SW 247 -2,4 C -1,1 C 14,2 km/h (3 Bft)
21.04.2019 06:22 4,5 C 3,0 C 61 % 1027,5 hPa 0,0 l/m 15,2 km/h (3 Bft) W-SW 247 -2,4 C -1,6 C 15,2 km/h (3 Bft)
21.04.2019 06:20 4,5 C 3,1 C 61 % 1027,6 hPa 0,0 l/m 15,4 km/h (3 Bft) SW 225 -2,4 C -1,7 C 15,2 km/h (3 Bft)
21.04.2019 06:18 4,6 C 3,2 C 61 % 1027,6 hPa 0,0 l/m 15,4 km/h (3 Bft) W-SW 247 -2,3 C -1,6 C 16,2 km/h (3 Bft)
21.04.2019 06:16 4,7 C 3,6 C 61 % 1027,6 hPa 0,0 l/m 15,4 km/h (3 Bft) S 180 -2,2 C -1,5 C 19,3 km/h (3 Bft)
21.04.2019 06:14 4,7 C 3,5 C 61 % 1027,6 hPa 0,0 l/m 15,0 km/h (3 Bft) SW 225 -2,2 C -1,3 C 19,3 km/h (3 Bft)
21.04.2019 06:12 4,6 C 3,4 C 61 % 1027,6 hPa 0,0 l/m 14,5 km/h (3 Bft) W-SW 247 -2,3 C -1,1 C 19,1 km/h (3 Bft)
21.04.2019 06:10 4,6 C 3,2 C 61 % 1027,6 hPa 0,0 l/m 13,8 km/h (3 Bft) W-SW 247 -2,3 C -0,8 C 15,2 km/h (3 Bft)
21.04.2019 06:08 4,5 C 3,1 C 61 % 1027,6 hPa 0,0 l/m 14,0 km/h (3 Bft) W-SW 247 -2,4 C -1,0 C 15,9 km/h (3 Bft)
21.04.2019 06:06 4,6 C 3,1 C 61 % 1027,6 hPa 0,0 l/m 14,2 km/h (3 Bft) S-SW 202 -2,3 C -1,0 C 15,9 km/h (3 Bft)
21.04.2019 06:04 4,6 C 3,1 C 60 % 1027,6 hPa 0,0 l/m 14,7 km/h (3 Bft) SW 225 -2,5 C -1,3 C 15,7 km/h (3 Bft)
21.04.2019 06:02 4,7 C 3,0 C 60 % 1027,6 hPa 0,0 l/m 15,4 km/h (3 Bft) W-SW 247 -2,4 C -1,5 C 15,7 km/h (3 Bft)
21.04.2019 06:00 4,7 C 3,1 C 60 % 1027,6 hPa 0,0 l/m 15,4 km/h (3 Bft) SW 225 -2,4 C -1,5 C 16,2 km/h (3 Bft)
21.04.2019 05:58 4,9 C 3,2 C 60 % 1027,6 hPa 0,0 l/m 15,7 km/h (3 Bft) W-SW 247 -2,2 C -1,4 C 16,2 km/h (3 Bft)
21.04.2019 05:56 4,9 C 3,5 C 60 % 1027,6 hPa 0,0 l/m 15,7 km/h (3 Bft) W-SW 247 -2,2 C -1,4 C 16,4 km/h (3 Bft)
21.04.2019 05:54 4,9 C 3,4 C 60 % 1027,6 hPa 0,0 l/m 15,7 km/h (3 Bft) SW 225 -2,2 C -1,4 C 17,4 km/h (3 Bft)
21.04.2019 05:52 4,9 C 3,5 C 60 % 1027,6 hPa 0,0 l/m 15,4 km/h (3 Bft) SW 225 -2,2 C -1,2 C 17,6 km/h (3 Bft)
21.04.2019 05:50 5,0 C 3,5 C 60 % 1027,6 hPa 0,0 l/m 15,2 km/h (3 Bft) W-SW 247 -2,1 C -1,0 C 17,6 km/h (3 Bft)
21.04.2019 05:48 5,0 C 3,5 C 60 % 1027,6 hPa 0,0 l/m 15,0 km/h (3 Bft) SW 225 -2,1 C -0,9 C 16,2 km/h (3 Bft)
21.04.2019 05:46 5,1 C 3,6 C 60 % 1027,6 hPa 0,0 l/m 14,2 km/h (3 Bft) W-SW 247 -2,0 C -0,4 C 15,4 km/h (3 Bft)
21.04.2019 05:44 5,3 C 3,7 C 59 % 1027,6 hPa 0,0 l/m 14,2 km/h (3 Bft) SW 225 -2,0 C -0,1 C 15,9 km/h (3 Bft)
21.04.2019 05:42 5,4 C 4,0 C 59 % 1027,6 hPa 0,0 l/m 14,5 km/h (3 Bft) W-SW 247 -2,0 C -0,2 C 15,9 km/h (3 Bft)
21.04.2019 05:40 5,4 C 4,2 C 60 % 1027,7 hPa 0,0 l/m 14,5 km/h (3 Bft) W-SW 247 -1,7 C -0,2 C 16,4 km/h (3 Bft)
21.04.2019 05:38 5,3 C 4,0 C 60 % 1027,7 hPa 0,0 l/m 14,7 km/h (3 Bft) SW 225 -1,8 C -0,4 C 16,4 km/h (3 Bft)
21.04.2019 05:36 5,3 C 4,0 C 60 % 1027,7 hPa 0,0 l/m 15,4 km/h (3 Bft) SW 225 -1,8 C -0,8 C 15,7 km/h (3 Bft)
21.04.2019 05:34 5,2 C 4,1 C 60 % 1027,7 hPa 0,0 l/m 15,7 km/h (3 Bft) SW 225 -1,9 C -1,0 C 15,7 km/h (3 Bft)
21.04.2019 05:32 5,2 C 3,8 C 60 % 1027,7 hPa 0,0 l/m 15,4 km/h (3 Bft) SW 225 -1,9 C -0,9 C 17,4 km/h (3 Bft)
21.04.2019 05:30 5,1 C 3,7 C 60 % 1027,7 hPa 0,0 l/m 15,4 km/h (3 Bft) W-SW 247 -2,0 C -1,0 C 18,1 km/h (3 Bft)
21.04.2019 05:28 5,1 C 3,6 C 60 % 1027,7 hPa 0,0 l/m 15,0 km/h (3 Bft) SW 225 -2,0 C -0,8 C 18,1 km/h (3 Bft)
21.04.2019 05:26 5,1 C 3,2 C 59 % 1027,7 hPa 0,0 l/m 14,0 km/h (3 Bft) SW 225 -2,2 C -0,3 C 16,9 km/h (3 Bft)
21.04.2019 05:24 5,2 C 3,5 C 59 % 1027,7 hPa 0,0 l/m 14,0 km/h (3 Bft) SW 225 -2,1 C -0,2 C 16,7 km/h (3 Bft)
21.04.2019 05:22 5,3 C 4,0 C 60 % 1027,7 hPa 0,0 l/m 13,5 km/h (3 Bft) W-SW 247 -1,8 C 0,2 C 16,7 km/h (3 Bft)
21.04.2019 05:20 5,2 C 3,8 C 59 % 1028,0 hPa 0,0 l/m 13,0 km/h (3 Bft) SW 225 -2,1 C 0,4 C 14,0 km/h (3 Bft)
21.04.2019 05:18 5,2 C 3,7 C 59 % 1028,0 hPa 0,0 l/m 13,3 km/h (3 Bft) N-NW 337 -2,1 C 0,2 C 13,8 km/h (3 Bft)
21.04.2019 05:16 5,2 C 3,8 C 60 % 1028,0 hPa 0,0 l/m 13,8 km/h (3 Bft) W-SW 247 -1,9 C -0,0 C 15,0 km/h (3 Bft)
21.04.2019 05:14 5,2 C 3,6 C 59 % 1028,0 hPa 0,0 l/m 14,2 km/h (3 Bft) W-SW 247 -2,1 C -0,3 C 15,0 km/h (3 Bft)
21.04.2019 05:12 5,2 C 3,7 C 59 % 1028,0 hPa 0,0 l/m 14,2 km/h (3 Bft) W-SW 247 -2,1 C -0,3 C 15,2 km/h (3 Bft)
21.04.2019 05:10 5,2 C 3,8 C 59 % 1028,0 hPa 0,0 l/m 14,5 km/h (3 Bft) SW 225 -2,1 C -0,4 C 15,7 km/h (3 Bft)
21.04.2019 05:08 5,2 C 4,1 C 59 % 1028,0 hPa 0,0 l/m 14,5 km/h (3 Bft) SW 225 -2,1 C -0,4 C 15,7 km/h (3 Bft)
21.04.2019 05:06 5,2 C 3,7 C 59 % 1028,0 hPa 0,0 l/m 14,2 km/h (3 Bft) SW 225 -2,1 C -0,3 C 15,9 km/h (3 Bft)
21.04.2019 05:04 5,2 C 3,7 C 60 % 1028,0 hPa 0,0 l/m 13,5 km/h (3 Bft) SW 225 -1,9 C 0,1 C 15,9 km/h (3 Bft)
21.04.2019 05:02 5,2 C 4,0 C 60 % 1028,0 hPa 0,0 l/m 12,8 km/h (3 Bft) W-SW 247 -1,9 C 0,5 C 15,4 km/h (3 Bft)
21.04.2019 05:00 5,1 C 3,7 C 60 % 1028,2 hPa 0,0 l/m 12,8 km/h (3 Bft) SW 225 -2,0 C 0,4 C 16,2 km/h (3 Bft)
21.04.2019 04:58 5,2 C 3,6 C 60 % 1028,2 hPa 0,0 l/m 12,8 km/h (3 Bft) SW 225 -1,9 C 0,5 C 16,2 km/h (3 Bft)
21.04.2019 04:56 5,2 C 3,8 C 60 % 1028,2 hPa 0,0 l/m 12,8 km/h (3 Bft) W-SW 247 -1,9 C 0,5 C 13,5 km/h (3 Bft)
21.04.2019 04:54 5,1 C 3,6 C 59 % 1028,2 hPa 0,0 l/m 12,8 km/h (3 Bft) W-SW 247 -2,2 C 0,4 C 12,3 km/h (3 Bft)
21.04.2019 04:52 5,1 C 3,5 C 59 % 1028,2 hPa 0,0 l/m 13,3 km/h (3 Bft) W-SW 247 -2,2 C 0,1 C 14,0 km/h (3 Bft)
21.04.2019 04:50 5,1 C 3,5 C 59 % 1028,2 hPa 0,0 l/m 13,5 km/h (3 Bft) SW 225 -2,2 C -0,0 C 14,0 km/h (3 Bft)
21.04.2019 04:48 5,2 C 3,6 C 59 % 1028,2 hPa 0,0 l/m 13,5 km/h (3 Bft) S-SW 202 -2,1 C 0,1 C 15,9 km/h (3 Bft)
21.04.2019 04:46 5,3 C 3,7 C 59 % 1028,2 hPa 0,0 l/m 13,8 km/h (3 Bft) SW 225 -2,0 C 0,1 C 15,9 km/h (3 Bft)
21.04.2019 04:44 5,3 C 4,0 C 59 % 1028,2 hPa 0,0 l/m 13,8 km/h (3 Bft) S-SW 202 -2,0 C 0,1 C 14,5 km/h (3 Bft)
21.04.2019 04:42 5,3 C 4,0 C 59 % 1028,2 hPa 0,0 l/m 13,5 km/h (3 Bft) W-SW 247 -2,0 C 0,2 C 14,5 km/h (3 Bft)
21.04.2019 04:40 5,3 C 4,3 C 59 % 1028,1 hPa 0,0 l/m 13,8 km/h (3 Bft) SW 225 -2,0 C 0,1 C 15,2 km/h (3 Bft)
21.04.2019 04:38 5,3 C 4,4 C 59 % 1028,1 hPa 0,0 l/m 13,5 km/h (3 Bft) SW 225 -2,0 C 0,2 C 15,2 km/h (3 Bft)
21.04.2019 04:36 5,2 C 4,1 C 59 % 1028,1 hPa 0,0 l/m 13,5 km/h (3 Bft) SW 225 -2,1 C 0,1 C 14,7 km/h (3 Bft)
21.04.2019 04:34 5,1 C 3,8 C 59 % 1028,1 hPa 0,0 l/m 13,8 km/h (3 Bft) SW 225 -2,2 C -0,2 C 15,9 km/h (3 Bft)
21.04.2019 04:32 5,0 C 3,6 C 59 % 1028,1 hPa 0,0 l/m 14,2 km/h (3 Bft) SW 225 -2,3 C -0,5 C 15,9 km/h (3 Bft)
21.04.2019 04:30 4,7 C 3,0 C 59 % 1028,1 hPa 0,0 l/m 14,7 km/h (3 Bft) SW 225 -2,6 C -1,1 C 13,8 km/h (3 Bft)
21.04.2019 04:28 4,9 C 3,0 C 59 % 1028,1 hPa 0,0 l/m 15,7 km/h (3 Bft) W-SW 247 -2,4 C -1,4 C 17,9 km/h (3 Bft)
21.04.2019 04:26 4,9 C 3,2 C 59 % 1028,1 hPa 0,0 l/m 16,7 km/h (3 Bft) SW 225 -2,4 C -1,9 C 20,0 km/h (4 Bft)
21.04.2019 04:24 5,0 C 3,1 C 58 % 1028,1 hPa 0,0 l/m 17,1 km/h (3 Bft) SW 225 -2,6 C -1,9 C 20,0 km/h (4 Bft)
21.04.2019 04:22 5,1 C 3,4 C 58 % 1028,1 hPa 0,0 l/m 16,9 km/h (3 Bft) SW 225 -2,5 C -1,7 C 19,3 km/h (3 Bft)
21.04.2019 04:20 5,1 C 3,4 C 58 % 1028,1 hPa 0,0 l/m 17,9 km/h (3 Bft) SW 225 -2,5 C -2,2 C 19,3 km/h (3 Bft)
21.04.2019 04:18 5,3 C 3,6 C 58 % 1028,1 hPa 0,0 l/m 17,4 km/h (3 Bft) SW 225 -2,3 C -1,7 C 22,4 km/h (4 Bft)
21.04.2019 04:16 5,4 C 3,8 C 58 % 1028,1 hPa 0,0 l/m 17,1 km/h (3 Bft) SW 225 -2,2 C -1,4 C 22,4 km/h (4 Bft)
21.04.2019 04:14 5,5 C 3,8 C 57 % 1028,1 hPa 0,0 l/m 17,6 km/h (3 Bft) SW 225 -2,3 C -1,5 C 21,0 km/h (4 Bft)
21.04.2019 04:12 5,6 C 3,9 C 57 % 1028,1 hPa 0,0 l/m 17,6 km/h (3 Bft) W-SW 247 -2,2 C -1,4 C 20,3 km/h (4 Bft)
21.04.2019 04:10 5,7 C 4,2 C 57 % 1028,1 hPa 0,0 l/m 17,4 km/h (3 Bft) SW 225 -2,1 C -1,2 C 22,2 km/h (4 Bft)
21.04.2019 04:08 5,9 C 4,3 C 57 % 1028,1 hPa 0,0 l/m 17,6 km/h (3 Bft) SW 225 -2,0 C -1,0 C 22,2 km/h (4 Bft)
21.04.2019 04:06 6,0 C 4,4 C 55 % 1028,1 hPa 0,0 l/m 17,4 km/h (3 Bft) S 180 -2,3 C -0,8 C 21,7 km/h (4 Bft)
21.04.2019 04:04 6,1 C 4,3 C 54 % 1028,1 hPa 0,0 l/m 17,1 km/h (3 Bft) SW 225 -2,5 C -0,6 C 21,7 km/h (4 Bft)
21.04.2019 04:02 6,2 C 4,6 C 54 % 1028,1 hPa 0,0 l/m 16,4 km/h (3 Bft) SW 225 -2,4 C -0,1 C 19,3 km/h (3 Bft)
21.04.2019 04:00 6,3 C 4,7 C 54 % 1028,4 hPa 0,0 l/m 16,4 km/h (3 Bft) SW 225 -2,3 C -0,0 C 20,5 km/h (4 Bft)
21.04.2019 03:58 6,6 C 5,2 C 54 % 1028,4 hPa 0,0 l/m 16,4 km/h (3 Bft) SW 225 -2,0 C 0,4 C 21,7 km/h (4 Bft)
21.04.2019 03:56 6,7 C 5,4 C 54 % 1028,4 hPa 0,0 l/m 16,9 km/h (3 Bft) SW 225 -1,9 C 0,3 C 21,7 km/h (4 Bft)
21.04.2019 03:54 6,6 C 5,6 C 54 % 1028,4 hPa 0,0 l/m 16,9 km/h (3 Bft) SW 225 -2,0 C 0,1 C 16,4 km/h (3 Bft)
21.04.2019 03:52 6,6 C 5,3 C 54 % 1028,4 hPa 0,0 l/m 17,1 km/h (3 Bft) W-SW 247 -2,0 C 0,1 C 19,6 km/h (3 Bft)
21.04.2019 03:50 6,6 C 5,5 C 54 % 1028,4 hPa 0,0 l/m 18,1 km/h (3 Bft) W-SW 247 -2,0 C -0,4 C 19,6 km/h (3 Bft)
21.04.2019 03:48 6,6 C 5,4 C 54 % 1028,4 hPa 0,0 l/m 18,6 km/h (3 Bft) SW 225 -2,0 C -0,6 C 19,3 km/h (3 Bft)
21.04.2019 03:46 6,5 C 5,4 C 54 % 1028,4 hPa 0,0 l/m 18,8 km/h (3 Bft) SW 225 -2,1 C -0,8 C 19,3 km/h (3 Bft)
21.04.2019 03:44 6,3 C 5,0 C 54 % 1028,4 hPa 0,0 l/m 19,1 km/h (3 Bft) S 180 -2,3 C -1,1 C 22,2 km/h (4 Bft)
21.04.2019 03:42 6,2 C 5,0 C 54 % 1028,4 hPa 0,0 l/m 20,3 km/h (4 Bft) W-SW 247 -2,4 C -1,7 C 23,2 km/h (4 Bft)
21.04.2019 03:40 6,2 C 4,7 C 54 % 1028,6 hPa 0,0 l/m 20,5 km/h (4 Bft) SW 225 -2,4 C -1,8 C 23,2 km/h (4 Bft)
21.04.2019 03:38 6,3 C 5,0 C 54 % 1028,6 hPa 0,0 l/m 20,5 km/h (4 Bft) SW 225 -2,3 C -1,7 C 22,7 km/h (4 Bft)
21.04.2019 03:36 6,3 C 5,0 C 54 % 1028,6 hPa 0,0 l/m 20,8 km/h (4 Bft) SW 225 -2,3 C -1,8 C 23,4 km/h (4 Bft)
21.04.2019 03:34 6,3 C 4,6 C 54 % 1028,6 hPa 0,0 l/m 21,0 km/h (4 Bft) W-SW 247 -2,3 C -1,9 C 24,6 km/h (4 Bft)
21.04.2019 03:32 6,4 C 4,8 C 54 % 1028,6 hPa 0,0 l/m 20,5 km/h (4 Bft) W-SW 247 -2,2 C -1,5 C 24,6 km/h (4 Bft)
21.04.2019 03:30 6,4 C 5,0 C 54 % 1028,6 hPa 0,0 l/m 20,0 km/h (4 Bft) SW 225 -2,2 C -1,4 C 22,0 km/h (4 Bft)
21.04.2019 03:28 6,4 C 5,0 C 54 % 1028,6 hPa 0,0 l/m 19,8 km/h (3 Bft) W-SW 247 -2,2 C -1,3 C 22,0 km/h (4 Bft)
21.04.2019 03:26 6,5 C 5,1 C 54 % 1028,6 hPa 0,0 l/m 19,8 km/h (3 Bft) W-SW 247 -2,1 C -1,2 C 21,5 km/h (4 Bft)
21.04.2019 03:24 6,5 C 5,1 C 54 % 1028,6 hPa 0,0 l/m 20,0 km/h (4 Bft) W-SW 247 -2,1 C -1,2 C 22,4 km/h (4 Bft)
21.04.2019 03:22 6,6 C 5,1 C 54 % 1028,6 hPa 0,0 l/m 20,0 km/h (4 Bft) W-SW 247 -2,0 C -1,1 C 22,4 km/h (4 Bft)
21.04.2019 03:20 6,6 C 5,2 C 54 % 1028,9 hPa 0,0 l/m 20,5 km/h (4 Bft) SW 225 -2,0 C -1,3 C 22,0 km/h (4 Bft)
21.04.2019 03:18 6,6 C 5,2 C 53 % 1028,9 hPa 0,0 l/m 20,8 km/h (4 Bft) SW 225 -2,3 C -1,4 C 22,0 km/h (4 Bft)
21.04.2019 03:16 6,7 C 5,2 C 53 % 1028,9 hPa 0,0 l/m 20,8 km/h (4 Bft) W 270 -2,2 C -1,3 C 23,7 km/h (4 Bft)
21.04.2019 03:14 6,9 C 5,4 C 53 % 1028,9 hPa 0,0 l/m 20,8 km/h (4 Bft) W-SW 247 -2,0 C -1,0 C 23,7 km/h (4 Bft)
21.04.2019 03:12 7,0 C 5,5 C 53 % 1028,9 hPa 0,0 l/m 20,8 km/h (4 Bft) SW 225 -1,9 C -0,9 C 22,2 km/h (4 Bft)
21.04.2019 03:10 6,9 C 5,5 C 53 % 1028,9 hPa 0,0 l/m 20,8 km/h (4 Bft) W-SW 247 -2,0 C -1,0 C 22,7 km/h (4 Bft)
21.04.2019 03:08 6,8 C 5,2 C 53 % 1028,9 hPa 0,0 l/m 20,5 km/h (4 Bft) W-SW 247 -2,1 C -1,0 C 22,7 km/h (4 Bft)
21.04.2019 03:06 6,9 C 5,3 C 52 % 1028,9 hPa 0,0 l/m 20,5 km/h (4 Bft) SW 225 -2,3 C -0,9 C 22,9 km/h (4 Bft)
21.04.2019 03:04 7,3 C 5,3 C 51 % 1028,9 hPa 0,0 l/m 20,5 km/h (4 Bft) W-SW 247 -2,2 C -0,4 C 23,2 km/h (4 Bft)
21.04.2019 03:02 7,3 C 5,5 C 51 % 1028,9 hPa 0,0 l/m 19,6 km/h (3 Bft) SW 225 -2,2 C -0,1 C 23,2 km/h (4 Bft)
21.04.2019 03:00 7,4 C 5,6 C 51 % 1028,8 hPa 0,0 l/m 19,3 km/h (3 Bft) W-SW 247 -2,1 C 0,2 C 22,9 km/h (4 Bft)
21.04.2019 02:58 7,6 C 5,9 C 51 % 1028,8 hPa 0,0 l/m 18,6 km/h (3 Bft) W-SW 247 -1,9 C 0,7 C 22,9 km/h (4 Bft)
21.04.2019 02:56 7,6 C 5,8 C 51 % 1028,8 hPa 0,0 l/m 18,3 km/h (3 Bft) SW 225 -1,9 C 0,8 C 21,2 km/h (4 Bft)
21.04.2019 02:54 7,6 C 5,8 C 51 % 1028,8 hPa 0,0 l/m 18,3 km/h (3 Bft) W-SW 247 -1,9 C 0,8 C 20,5 km/h (4 Bft)
21.04.2019 02:52 7,8 C 6,2 C 51 % 1028,8 hPa 0,0 l/m 18,3 km/h (3 Bft) W-SW 247 -1,7 C 1,1 C 20,5 km/h (4 Bft)
21.04.2019 02:50 7,7 C 6,1 C 51 % 1028,8 hPa 0,0 l/m 18,6 km/h (3 Bft) SW 225 -1,8 C 0,8 C 25,1 km/h (4 Bft)
21.04.2019 02:48 7,7 C 6,0 C 51 % 1028,8 hPa 0,0 l/m 19,1 km/h (3 Bft) W-SW 247 -1,8 C 0,6 C 25,1 km/h (4 Bft)
21.04.2019 02:46 7,7 C 5,8 C 51 % 1028,8 hPa 0,0 l/m 18,8 km/h (3 Bft) W-SW 247 -1,8 C 0,8 C 22,9 km/h (4 Bft)
21.04.2019 02:44 7,7 C 6,0 C 50 % 1028,8 hPa 0,0 l/m 18,6 km/h (3 Bft) W-SW 247 -2,1 C 0,8 C 22,9 km/h (4 Bft)
21.04.2019 02:42 7,8 C 6,1 C 50 % 1028,8 hPa 0,0 l/m 18,6 km/h (3 Bft) W-SW 247 -2,0 C 1,0 C 23,9 km/h (4 Bft)
21.04.2019 02:40 7,8 C 5,9 C 50 % 1029,1 hPa 0,0 l/m 18,1 km/h (3 Bft) W-SW 247 -2,0 C 1,2 C 23,9 km/h (4 Bft)
21.04.2019 02:38 7,9 C 6,0 C 50 % 1029,1 hPa 0,0 l/m 17,4 km/h (3 Bft) W-SW 247 -1,9 C 1,6 C 21,5 km/h (4 Bft)
21.04.2019 02:36 8,3 C 6,1 C 49 % 1029,1 hPa 0,0 l/m 16,9 km/h (3 Bft) W 270 -1,8 C 2,3 C 19,3 km/h (3 Bft)
21.04.2019 02:34 8,5 C 7,0 C 49 % 1029,1 hPa 0,0 l/m 16,9 km/h (3 Bft) W-SW 247 -1,6 C 2,5 C 20,8 km/h (4 Bft)
21.04.2019 02:32 8,4 C 6,5 C 49 % 1029,1 hPa 0,0 l/m 16,9 km/h (3 Bft) SW 225 -1,7 C 2,4 C 20,8 km/h (4 Bft)
21.04.2019 02:30 8,5 C 6,5 C 49 % 1029,1 hPa 0,0 l/m 16,9 km/h (3 Bft) W-SW 247 -1,6 C 2,5 C 18,8 km/h (3 Bft)
21.04.2019 02:28 8,6 C 7,0 C 49 % 1029,1 hPa 0,0 l/m 16,7 km/h (3 Bft) W-SW 247 -1,5 C 2,7 C 20,5 km/h (4 Bft)
21.04.2019 02:26 8,5 C 6,9 C 49 % 1029,1 hPa 0,0 l/m 16,2 km/h (3 Bft) W-SW 247 -1,6 C 2,8 C 23,4 km/h (4 Bft)
21.04.2019 02:24 8,4 C 6,8 C 49 % 1029,1 hPa 0,0 l/m 15,9 km/h (3 Bft) W-SW 247 -1,7 C 2,8 C 23,4 km/h (4 Bft)
21.04.2019 02:22 8,4 C 6,5 C 49 % 1029,1 hPa 0,0 l/m 15,4 km/h (3 Bft) W-SW 247 -1,7 C 3,0 C 21,0 km/h (4 Bft)
21.04.2019 02:20 8,5 C 6,3 C 49 % 1029,1 hPa 0,0 l/m 15,7 km/h (3 Bft) SW 225 -1,6 C 3,0 C 19,1 km/h (3 Bft)
21.04.2019 02:18 8,5 C 5,8 C 49 % 1029,1 hPa 0,0 l/m 15,4 km/h (3 Bft) W-SW 247 -1,6 C 3,1 C 19,1 km/h (3 Bft)
21.04.2019 02:16 8,6 C 6,2 C 48 % 1029,1 hPa 0,0 l/m 15,7 km/h (3 Bft) W-SW 247 -1,8 C 3,1 C 17,9 km/h (3 Bft)
21.04.2019 02:14 8,7 C 6,3 C 48 % 1029,1 hPa 0,0 l/m 15,4 km/h (3 Bft) W-SW 247 -1,7 C 3,4 C 17,9 km/h (3 Bft)
21.04.2019 02:12 8,9 C 7,1 C 48 % 1029,1 hPa 0,0 l/m 15,2 km/h (3 Bft) W-SW 247 -1,5 C 3,7 C 19,1 km/h (3 Bft)
21.04.2019 02:10 9,2 C 6,8 C 48 % 1029,1 hPa 0,0 l/m 15,4 km/h (3 Bft) W-SW 247 -1,2 C 4,0 C 19,1 km/h (3 Bft)
21.04.2019 02:08 9,3 C 7,3 C 48 % 1029,1 hPa 0,0 l/m 14,5 km/h (3 Bft) W-SW 247 -1,1 C 4,5 C 15,7 km/h (3 Bft)
21.04.2019 02:06 9,4 C 7,5 C 48 % 1029,1 hPa 0,0 l/m 15,0 km/h (3 Bft) W-SW 247 -1,0 C 4,4 C 31,4 km/h (5 Bft)
21.04.2019 02:04 9,4 C 7,4 C 48 % 1029,1 hPa 0,0 l/m 14,2 km/h (3 Bft) W-SW 247 -1,0 C 4,8 C 17,1 km/h (3 Bft)
21.04.2019 02:02 9,4 C 7,1 C 48 % 1029,1 hPa 0,0 l/m 14,5 km/h (3 Bft) SW 225 -1,0 C 4,6 C 22,4 km/h (4 Bft)
21.04.2019 02:00 9,2 C 6,3 C 48 % 1029,5 hPa 0,0 l/m 14,5 km/h (3 Bft) SW 225 -1,2 C 4,4 C 22,4 km/h (4 Bft)
21.04.2019 01:58 9,5 C 7,9 C 48 % 1029,5 hPa 0,0 l/m 14,7 km/h (3 Bft) W-SW 247 -1,0 C 4,7 C 16,7 km/h (3 Bft)
21.04.2019 01:56 9,4 C 7,5 C 48 % 1029,5 hPa 0,0 l/m 14,7 km/h (3 Bft) SO 135 -1,0 C 4,5 C 16,7 km/h (3 Bft)
21.04.2019 01:54 9,3 C 7,6 C 48 % 1029,5 hPa 0,0 l/m 14,5 km/h (3 Bft) SW 225 -1,1 C 4,5 C 15,0 km/h (3 Bft)
21.04.2019 01:52 8,8 C 6,2 C 48 % 1029,5 hPa 0,0 l/m 14,5 km/h (3 Bft) W-SW 247 -1,6 C 3,9 C 15,0 km/h (3 Bft)
21.04.2019 01:50 9,0 C 7,0 C 48 % 1029,5 hPa 0,0 l/m 14,0 km/h (3 Bft) SW 225 -1,4 C 4,4 C 15,2 km/h (3 Bft)
21.04.2019 01:48 9,2 C 7,0 C 48 % 1029,5 hPa 0,0 l/m 14,2 km/h (3 Bft) S 180 -1,2 C 4,5 C 23,7 km/h (4 Bft)
21.04.2019 01:46 9,0 C 6,4 C 48 % 1029,5 hPa 0,0 l/m 13,8 km/h (3 Bft) W-SW 247 -1,4 C 4,5 C 25,3 km/h (4 Bft)
21.04.2019 01:44 9,2 C 7,2 C 48 % 1029,5 hPa 0,0 l/m 13,5 km/h (3 Bft) W 270 -1,2 C 4,8 C 16,4 km/h (3 Bft)
21.04.2019 01:42 8,9 C 6,9 C 48 % 1029,5 hPa 0,0 l/m 13,5 km/h (3 Bft) W-SW 247 -1,5 C 4,5 C 16,4 km/h (3 Bft)
21.04.2019 01:40 9,2 C 7,1 C 48 % 1029,5 hPa 0,0 l/m 14,7 km/h (3 Bft) W-SW 247 -1,2 C 4,3 C 15,0 km/h (3 Bft)
21.04.2019 01:38 9,3 C 7,1 C 48 % 1029,5 hPa 0,0 l/m 15,2 km/h (3 Bft) W-SW 247 -1,1 C 4,2 C 15,0 km/h (3 Bft)
21.04.2019 01:36 9,2 C 7,4 C 48 % 1029,5 hPa 0,0 l/m 14,7 km/h (3 Bft) SW 225 -1,2 C 4,3 C 24,9 km/h (4 Bft)
21.04.2019 01:34 8,8 C 6,4 C 48 % 1029,5 hPa 0,0 l/m 14,7 km/h (3 Bft) SW 225 -1,6 C 3,8 C 18,3 km/h (3 Bft)
21.04.2019 01:32 8,9 C 7,2 C 48 % 1029,5 hPa 0,0 l/m 15,7 km/h (3 Bft) W-SW 247 -1,5 C 3,5 C 18,3 km/h (3 Bft)
21.04.2019 01:30 9,0 C 7,4 C 48 % 1029,5 hPa 0,0 l/m 16,2 km/h (3 Bft) SW 225 -1,4 C 3,4 C 24,9 km/h (4 Bft)
21.04.2019 01:28 8,7 C 6,5 C 48 % 1029,5 hPa 0,0 l/m 16,2 km/h (3 Bft) SW 225 -1,7 C 3,0 C 24,9 km/h (4 Bft)
21.04.2019 01:26 8,7 C 6,5 C 48 % 1029,5 hPa 0,0 l/m 16,2 km/h (3 Bft) S-SW 202 -1,7 C 3,0 C 23,2 km/h (4 Bft)
21.04.2019 01:24 8,7 C 6,3 C 48 % 1029,5 hPa 0,0 l/m 17,6 km/h (3 Bft) SW 225 -1,7 C 2,5 C 21,7 km/h (4 Bft)
21.04.2019 01:22 8,8 C 7,0 C 48 % 1029,5 hPa 0,0 l/m 16,4 km/h (3 Bft) W-SW 247 -1,6 C 3,1 C 21,7 km/h (4 Bft)
21.04.2019 01:20 8,9 C 7,1 C 48 % 1029,8 hPa 0,0 l/m 15,4 km/h (3 Bft) SW 225 -1,5 C 3,6 C 22,2 km/h (4 Bft)
21.04.2019 01:18 8,9 C 6,9 C 48 % 1029,8 hPa 0,0 l/m 14,2 km/h (3 Bft) W-SW 247 -1,5 C 4,2 C 22,2 km/h (4 Bft)
21.04.2019 01:16 8,8 C 7,0 C 47 % 1029,8 hPa 0,0 l/m 13,3 km/h (3 Bft) SW 225 -1,9 C 4,5 C 22,9 km/h (4 Bft)
21.04.2019 01:14 8,6 C 6,3 C 47 % 1029,8 hPa 0,0 l/m 12,8 km/h (3 Bft) SW 225 -2,1 C 4,5 C 22,9 km/h (4 Bft)
21.04.2019 01:12 8,6 C 5,6 C 47 % 1029,8 hPa 0,0 l/m 12,1 km/h (2 Bft) SW 225 -2,1 C 4,8 C 15,2 km/h (3 Bft)
21.04.2019 01:10 8,7 C 6,0 C 47 % 1029,8 hPa 0,0 l/m 13,3 km/h (3 Bft) W 270 -2,0 C 4,4 C 15,2 km/h (3 Bft)
21.04.2019 01:08 8,7 C 6,2 C 47 % 1029,8 hPa 0,0 l/m 14,2 km/h (3 Bft) W-SW 247 -2,0 C 3,9 C 13,0 km/h (3 Bft)
21.04.2019 01:06 8,9 C 6,4 C 47 % 1029,8 hPa 0,0 l/m 14,2 km/h (3 Bft) O-SO 112 -1,8 C 4,2 C 21,5 km/h (4 Bft)
21.04.2019 01:04 9,0 C 6,5 C 47 % 1029,8 hPa 0,0 l/m 14,5 km/h (3 Bft) W-SW 247 -1,7 C 4,1 C 16,4 km/h (3 Bft)
21.04.2019 01:02 9,2 C 7,3 C 47 % 1029,8 hPa 0,0 l/m 14,7 km/h (3 Bft) SW 225 -1,5 C 4,3 C 17,9 km/h (3 Bft)
21.04.2019 01:00 9,1 C 7,3 C 47 % 1030,0 hPa 0,0 l/m 14,7 km/h (3 Bft) W-SW 247 -1,6 C 4,2 C 17,9 km/h (3 Bft)
21.04.2019 00:58 8,8 C 6,5 C 47 % 1030,0 hPa 0,0 l/m 14,2 km/h (3 Bft) SW 225 -1,9 C 4,0 C 16,7 km/h (3 Bft)
21.04.2019 00:56 8,9 C 6,1 C 46 % 1030,0 hPa 0,0 l/m 14,2 km/h (3 Bft) SW 225 -2,1 C 4,2 C 19,6 km/h (3 Bft)
21.04.2019 00:54 9,0 C 6,4 C 46 % 1030,0 hPa 0,0 l/m 15,0 km/h (3 Bft) W-SW 247 -2,0 C 3,9 C 19,6 km/h (3 Bft)
21.04.2019 00:52 9,1 C 6,7 C 46 % 1030,0 hPa 0,0 l/m 14,7 km/h (3 Bft) W-SW 247 -1,9 C 4,2 C 17,1 km/h (3 Bft)
21.04.2019 00:50 9,1 C 6,4 C 46 % 1030,0 hPa 0,0 l/m 15,0 km/h (3 Bft) SW 225 -1,9 C 4,0 C 16,2 km/h (3 Bft)
21.04.2019 00:48 9,2 C 7,2 C 46 % 1030,0 hPa 0,0 l/m 15,2 km/h (3 Bft) SW 225 -1,8 C 4,1 C 14,5 km/h (3 Bft)
21.04.2019 00:46 9,2 C 7,1 C 46 % 1030,0 hPa 0,0 l/m 15,7 km/h (3 Bft) W-SW 247 -1,8 C 3,9 C 20,8 km/h (4 Bft)
21.04.2019 00:44 9,2 C 7,3 C 46 % 1030,0 hPa 0,0 l/m 15,7 km/h (3 Bft) W-SW 247 -1,8 C 3,9 C 17,6 km/h (3 Bft)
21.04.2019 00:42 9,3 C 7,3 C 46 % 1030,0 hPa 0,0 l/m 16,2 km/h (3 Bft) SW 225 -1,7 C 3,8 C 18,1 km/h (3 Bft)
21.04.2019 00:40 9,3 C 7,4 C 45 % 1030,1 hPa 0,0 l/m 15,7 km/h (3 Bft) W-SW 247 -2,0 C 4,0 C 18,1 km/h (3 Bft)
21.04.2019 00:38 9,3 C 7,3 C 45 % 1030,1 hPa 0,0 l/m 15,4 km/h (3 Bft) W-SW 247 -2,0 C 4,1 C 17,9 km/h (3 Bft)
21.04.2019 00:36 9,5 C 7,3 C 45 % 1030,1 hPa 0,0 l/m 15,2 km/h (3 Bft) W-SW 247 -1,8 C 4,4 C 20,3 km/h (4 Bft)
21.04.2019 00:34 9,5 C 7,5 C 45 % 1030,1 hPa 0,0 l/m 15,2 km/h (3 Bft) W-SW 247 -1,8 C 4,4 C 19,1 km/h (3 Bft)
21.04.2019 00:32 9,5 C 6,9 C 45 % 1030,1 hPa 0,0 l/m 14,7 km/h (3 Bft) W-SW 247 -1,8 C 4,7 C 17,4 km/h (3 Bft)
21.04.2019 00:30 9,7 C 7,4 C 45 % 1030,1 hPa 0,0 l/m 14,5 km/h (3 Bft) SW 225 -1,6 C 5,0 C 16,9 km/h (3 Bft)
21.04.2019 00:28 9,7 C 7,2 C 45 % 1030,1 hPa 0,0 l/m 14,2 km/h (3 Bft) SW 225 -1,6 C 5,1 C 15,0 km/h (3 Bft)
21.04.2019 00:26 9,8 C 7,2 C 44 % 1030,1 hPa 0,0 l/m 14,5 km/h (3 Bft) SW 225 -1,9 C 5,1 C 19,6 km/h (3 Bft)
21.04.2019 00:24 9,9 C 7,1 C 44 % 1030,1 hPa 0,0 l/m 14,2 km/h (3 Bft) W-SW 247 -1,8 C 5,4 C 17,9 km/h (3 Bft)
21.04.2019 00:22 10,1 C 7,7 C 44 % 1030,1 hPa 0,0 l/m 14,2 km/h (3 Bft) SW 225 -1,6 C 5,6 C 16,9 km/h (3 Bft)
21.04.2019 00:20 10,3 C 8,4 C 44 % 1030,2 hPa 0,0 l/m 14,5 km/h (3 Bft) SW 225 -1,4 C 5,7 C 16,9 km/h (3 Bft)
21.04.2019 00:18 10,3 C 8,5 C 44 % 1030,2 hPa 0,0 l/m 15,0 km/h (3 Bft) SW 225 -1,4 C 5,5 C 16,9 km/h (3 Bft)
21.04.2019 00:16 10,3 C 8,4 C 44 % 1030,2 hPa 0,0 l/m 14,5 km/h (3 Bft) W-SW 247 -1,4 C 5,7 C 16,9 km/h (3 Bft)
21.04.2019 00:14 10,3 C 8,4 C 44 % 1030,2 hPa 0,0 l/m 14,5 km/h (3 Bft) SW 225 -1,4 C 5,7 C 14,0 km/h (3 Bft)
21.04.2019 00:12 10,3 C 8,4 C 44 % 1030,2 hPa 0,0 l/m 14,7 km/h (3 Bft) SW 225 -1,4 C 5,6 C 15,2 km/h (3 Bft)
21.04.2019 00:10 10,3 C 8,6 C 44 % 1030,2 hPa 0,0 l/m 14,7 km/h (3 Bft) W-SW 247 -1,4 C 5,6 C 16,2 km/h (3 Bft)
21.04.2019 00:08 10,2 C 8,6 C 44 % 1030,2 hPa 0,0 l/m 14,7 km/h (3 Bft) W-SW 247 -1,5 C 5,5 C 16,2 km/h (3 Bft)
21.04.2019 00:06 10,1 C 8,5 C 44 % 1030,2 hPa 0,0 l/m 14,0 km/h (3 Bft) W-SW 247 -1,6 C 5,7 C 16,9 km/h (3 Bft)
21.04.2019 00:04 9,9 C 7,8 C 44 % 1030,2 hPa 0,0 l/m 14,0 km/h (3 Bft) W-SW 247 -1,8 C 5,4 C 18,3 km/h (3 Bft)
21.04.2019 00:02 9,8 C 7,5 C 44 % 1030,2 hPa 0,0 l/m 13,5 km/h (3 Bft) SW 225 -1,9 C 5,6 C 18,3 km/h (3 Bft)
21.04.2019 00:00 9,9 C 7,6 C 44 % 1030,2 hPa 0,0 l/m 13,3 km/h (3 Bft) SW 225 -1,8 C 5,8 C 15,4 km/h (3 Bft)
20.04.2019 23:58 10,0 C 7,5 C 43 % 1030,2 hPa 0,0 l/m 13,3 km/h (3 Bft) W-SW 247 -2,0 C 5,9 C 15,0 km/h (3 Bft)
20.04.2019 23:56 10,1 C 7,8 C 43 % 1030,2 hPa 0,0 l/m 13,0 km/h (3 Bft) SW 225 -1,9 C 6,1 C 15,7 km/h (3 Bft)
20.04.2019 23:54 10,2 C 8,0 C 43 % 1030,2 hPa 0,0 l/m 12,6 km/h (3 Bft) SW 225 -1,8 C 6,5 C 15,7 km/h (3 Bft)
20.04.2019 23:52 10,2 C 7,9 C 43 % 1030,2 hPa 0,0 l/m 12,6 km/h (3 Bft) SW 225 -1,8 C 6,5 C 13,5 km/h (3 Bft)
20.04.2019 23:50 10,3 C 8,3 C 43 % 1030,2 hPa 0,0 l/m 12,6 km/h (3 Bft) W-SW 247 -1,7 C 6,6 C 15,0 km/h (3 Bft)
20.04.2019 23:48 10,3 C 8,0 C 43 % 1030,2 hPa 0,0 l/m 12,3 km/h (3 Bft) W-SW 247 -1,7 C 6,7 C 15,4 km/h (3 Bft)
20.04.2019 23:46 10,3 C 7,5 C 43 % 1030,2 hPa 0,0 l/m 11,8 km/h (2 Bft) W-SW 247 -1,7 C 7,0 C 15,4 km/h (3 Bft)
20.04.2019 23:44 10,4 C 8,0 C 43 % 1030,2 hPa 0,0 l/m 12,3 km/h (3 Bft) W-SW 247 -1,6 C 6,8 C 13,5 km/h (3 Bft)
20.04.2019 23:42 10,4 C 8,6 C 43 % 1030,2 hPa 0,0 l/m 12,6 km/h (3 Bft) W-SW 247 -1,6 C 6,7 C 12,6 km/h (3 Bft)
20.04.2019 23:40 10,2 C 7,9 C 43 % 1030,2 hPa 0,0 l/m 13,0 km/h (3 Bft) W-SW 247 -1,8 C 6,3 C 12,6 km/h (3 Bft)
20.04.2019 23:38 10,2 C 7,9 C 43 % 1030,2 hPa 0,0 l/m 13,3 km/h (3 Bft) W-SW 247 -1,8 C 6,1 C 12,3 km/h (3 Bft)
20.04.2019 23:36 10,2 C 8,4 C 43 % 1030,2 hPa 0,0 l/m 13,8 km/h (3 Bft) W-SW 247 -1,8 C 5,9 C 13,0 km/h (3 Bft)
20.04.2019 23:34 10,1 C 8,0 C 43 % 1030,2 hPa 0,0 l/m 14,0 km/h (3 Bft) SW 225 -1,9 C 5,7 C 15,2 km/h (3 Bft)
20.04.2019 23:32 10,1 C 8,0 C 43 % 1030,2 hPa 0,0 l/m 14,0 km/h (3 Bft) SW 225 -1,9 C 5,7 C 16,7 km/h (3 Bft)
20.04.2019 23:30 10,1 C 7,9 C 43 % 1030,2 hPa 0,0 l/m 13,5 km/h (3 Bft) W-SW 247 -1,9 C 5,9 C 16,7 km/h (3 Bft)
20.04.2019 23:28 10,2 C 7,9 C 43 % 1030,2 hPa 0,0 l/m 13,8 km/h (3 Bft) W-SW 247 -1,8 C 5,9 C 14,2 km/h (3 Bft)
20.04.2019 23:26 10,2 C 8,3 C 43 % 1030,2 hPa 0,0 l/m 14,0 km/h (3 Bft) SW 225 -1,8 C 5,8 C 15,7 km/h (3 Bft)
20.04.2019 23:24 10,1 C 7,8 C 43 % 1030,2 hPa 0,0 l/m 14,0 km/h (3 Bft) W-SW 247 -1,9 C 5,7 C 15,7 km/h (3 Bft)
20.04.2019 23:22 10,1 C 7,7 C 43 % 1030,2 hPa 0,0 l/m 13,5 km/h (3 Bft) W-SW 247 -1,9 C 5,9 C 14,0 km/h (3 Bft)
20.04.2019 23:20 10,2 C 7,7 C 43 % 1030,5 hPa 0,0 l/m 13,3 km/h (3 Bft) SW 225 -1,8 C 6,1 C 14,7 km/h (3 Bft)
20.04.2019 23:18 10,3 C 8,1 C 42 % 1030,5 hPa 0,0 l/m 12,8 km/h (3 Bft) W-SW 247 -2,0 C 6,5 C 16,9 km/h (3 Bft)
20.04.2019 23:16 10,4 C 8,2 C 42 % 1030,5 hPa 0,0 l/m 11,8 km/h (2 Bft) SW 225 -1,9 C 7,1 C 16,9 km/h (3 Bft)
20.04.2019 23:14 10,4 C 8,1 C 42 % 1030,5 hPa 0,0 l/m 11,6 km/h (2 Bft) SW 225 -1,9 C 7,2 C 13,5 km/h (3 Bft)
20.04.2019 23:12 10,4 C 7,8 C 42 % 1030,5 hPa 0,0 l/m 11,3 km/h (2 Bft) W-SW 247 -1,9 C 7,3 C 12,6 km/h (3 Bft)
20.04.2019 23:10 10,5 C 7,8 C 42 % 1030,5 hPa 0,0 l/m 11,3 km/h (2 Bft) SW 225 -1,9 C 7,4 C 12,1 km/h (2 Bft)
20.04.2019 23:08 10,6 C 8,1 C 42 % 1030,5 hPa 0,0 l/m 11,8 km/h (2 Bft) SW 225 -1,8 C 7,3 C 12,1 km/h (2 Bft)
20.04.2019 23:06 10,6 C 8,4 C 42 % 1030,5 hPa 0,0 l/m 11,6 km/h (2 Bft) W-SW 247 -1,8 C 7,4 C 14,0 km/h (3 Bft)
20.04.2019 23:04 10,6 C 8,1 C 42 % 1030,5 hPa 0,0 l/m 11,6 km/h (2 Bft) SW 225 -1,8 C 7,4 C 14,0 km/h (3 Bft)
20.04.2019 23:02 10,6 C 8,1 C 42 % 1030,5 hPa 0,0 l/m 12,1 km/h (2 Bft) SW 225 -1,8 C 7,2 C 13,8 km/h (3 Bft)
20.04.2019 23:00 10,7 C 8,6 C 42 % 1030,5 hPa 0,0 l/m 12,6 km/h (3 Bft) W-SW 247 -1,7 C 7,0 C 15,0 km/h (3 Bft)
20.04.2019 22:58 10,6 C 7,9 C 42 % 1030,5 hPa 0,0 l/m 12,8 km/h (3 Bft) SW 225 -1,8 C 6,8 C 15,0 km/h (3 Bft)
20.04.2019 22:56 10,5 C 7,7 C 42 % 1030,5 hPa 0,0 l/m 13,0 km/h (3 Bft) SW 225 -1,9 C 6,6 C 14,0 km/h (3 Bft)
20.04.2019 22:54 10,7 C 8,2 C 42 % 1030,5 hPa 0,0 l/m 13,3 km/h (3 Bft) W-SW 247 -1,7 C 6,7 C 15,9 km/h (3 Bft)
20.04.2019 22:52 10,8 C 8,5 C 42 % 1030,5 hPa 0,0 l/m 13,0 km/h (3 Bft) W-SW 247 -1,6 C 7,0 C 15,9 km/h (3 Bft)
20.04.2019 22:50 10,9 C 8,3 C 42 % 1030,5 hPa 0,0 l/m 12,6 km/h (3 Bft) W-SW 247 -1,5 C 7,3 C 15,9 km/h (3 Bft)
20.04.2019 22:48 11,1 C 8,3 C 42 % 1030,5 hPa 0,0 l/m 11,8 km/h (2 Bft) W-SW 247 -1,3 C 7,9 C 15,7 km/h (3 Bft)
20.04.2019 22:46 11,1 C 8,3 C 42 % 1030,5 hPa 0,0 l/m 11,1 km/h (2 Bft) W-SW 247 -1,3 C 8,2 C 12,6 km/h (3 Bft)
20.04.2019 22:44 11,2 C 8,5 C 42 % 1030,5 hPa 0,0 l/m 9,9 km/h (2 Bft) SW 225 -1,2 C 9,0 C 11,1 km/h (2 Bft)
20.04.2019 22:42 11,3 C 9,0 C 42 % 1030,5 hPa 0,0 l/m 8,9 km/h (2 Bft) SW 225 -1,1 C 9,7 C 12,3 km/h (3 Bft)
20.04.2019 22:40 11,3 C 8,3 C 42 % 1030,4 hPa 0,0 l/m 7,7 km/h (2 Bft) SW 225 -1,1 C 10,4 C 12,3 km/h (3 Bft)
20.04.2019 22:38 11,3 C 8,4 C 42 % 1030,4 hPa 0,0 l/m 6,0 km/h (2 Bft) SW 225 -1,1 C 11,3 C 12,3 km/h (3 Bft)
20.04.2019 22:36 11,3 C 8,0 C 42 % 1030,4 hPa 0,0 l/m 4,8 km/h (1 Bft) W-SW 247 -1,1 C 11,3 C 9,7 km/h (2 Bft)
20.04.2019 22:34 11,1 C 8,1 C 42 % 1030,4 hPa 0,0 l/m 4,1 km/h (1 Bft) W-SW 247 -1,3 C 11,1 C 8,7 km/h (2 Bft)
20.04.2019 22:32 11,2 C 7,7 C 42 % 1030,4 hPa 0,0 l/m 3,4 km/h (1 Bft) SO 135 -1,2 C 11,2 C 7,5 km/h (2 Bft)
20.04.2019 22:30 11,2 C 7,1 C 42 % 1030,4 hPa 0,0 l/m 3,1 km/h (1 Bft) W 270 -1,2 C 11,2 C 6,0 km/h (2 Bft)
20.04.2019 22:28 11,2 C 7,4 C 42 % 1030,4 hPa 0,0 l/m 4,1 km/h (1 Bft) SO 135 -1,2 C 11,2 C 4,8 km/h (1 Bft)
20.04.2019 22:26 11,2 C 6,9 C 42 % 1030,4 hPa 0,0 l/m 4,8 km/h (1 Bft) SW 225 -1,2 C 11,2 C 5,1 km/h (1 Bft)
20.04.2019 22:24 11,1 C 6,4 C 42 % 1030,4 hPa 0,0 l/m 4,8 km/h (1 Bft) S 180 -1,3 C 11,1 C 5,8 km/h (2 Bft)
20.04.2019 22:22 11,2 C 7,4 C 42 % 1030,4 hPa 0,0 l/m 5,6 km/h (1 Bft) S 180 -1,2 C 11,2 C 5,8 km/h (2 Bft)
20.04.2019 22:20 11,1 C 7,5 C 42 % 1030,6 hPa 0,0 l/m 6,0 km/h (2 Bft) S 180 -1,3 C 11,1 C 8,7 km/h (2 Bft)
20.04.2019 22:18 11,2 C 8,0 C 42 % 1030,6 hPa 0,0 l/m 6,0 km/h (2 Bft) SW 225 -1,2 C 11,2 C 8,7 km/h (2 Bft)
20.04.2019 22:16 11,3 C 7,2 C 42 % 1030,6 hPa 0,0 l/m 4,6 km/h (1 Bft) SW 225 -1,1 C 11,3 C 7,5 km/h (2 Bft)
20.04.2019 22:14 11,4 C 7,8 C 42 % 1030,6 hPa 0,0 l/m 4,3 km/h (1 Bft) W-SW 247 -1,0 C 11,4 C 7,5 km/h (2 Bft)
20.04.2019 22:12 11,4 C 7,2 C 42 % 1030,6 hPa 0,0 l/m 3,4 km/h (1 Bft) W-SW 247 -1,0 C 11,4 C 7,5 km/h (2 Bft)
20.04.2019 22:10 11,4 C 7,1 C 42 % 1030,6 hPa 0,0 l/m 2,7 km/h (1 Bft) SW 225 -1,0 C 11,4 C 6,8 km/h (2 Bft)
20.04.2019 22:08 11,3 C 8,3 C 42 % 1030,6 hPa 0,0 l/m 2,7 km/h (1 Bft) S 180 -1,1 C 11,3 C 4,8 km/h (1 Bft)
20.04.2019 22:06 11,2 C 8,0 C 42 % 1030,6 hPa 0,0 l/m 3,6 km/h (1 Bft) S-SO 157 -1,2 C 11,2 C 5,3 km/h (1 Bft)
20.04.2019 22:04 11,2 C 7,5 C 42 % 1030,6 hPa 0,0 l/m 4,1 km/h (1 Bft) SW 225 -1,2 C 11,2 C 5,3 km/h (1 Bft)
20.04.2019 22:02 11,1 C 6,8 C 42 % 1030,6 hPa 0,0 l/m 4,6 km/h (1 Bft) N-NW 337 -1,3 C 11,1 C 3,9 km/h (1 Bft)
20.04.2019 22:00 11,2 C 7,0 C 42 % 1030,8 hPa 0,0 l/m 5,3 km/h (1 Bft) SW 225 -1,2 C 11,2 C 6,5 km/h (2 Bft)
20.04.2019 21:58 11,3 C 7,2 C 42 % 1030,8 hPa 0,0 l/m 6,0 km/h (2 Bft) W-SW 247 -1,1 C 11,3 C 10,9 km/h (2 Bft)
20.04.2019 21:56 11,3 C 7,2 C 42 % 1030,8 hPa 0,0 l/m 6,5 km/h (2 Bft) SW 225 -1,1 C 11,3 C 10,9 km/h (2 Bft)
20.04.2019 21:54 11,0 C 6,9 C 42 % 1030,8 hPa 0,0 l/m 6,8 km/h (2 Bft) S-SW 202 -1,4 C 10,7 C 6,8 km/h (2 Bft)
20.04.2019 21:52 11,0 C 7,5 C 42 % 1030,8 hPa 0,0 l/m 7,0 km/h (2 Bft) S-SW 202 -1,4 C 10,6 C 8,4 km/h (2 Bft)
20.04.2019 21:50 10,9 C 7,2 C 42 % 1030,8 hPa 0,0 l/m 6,3 km/h (2 Bft) SW 225 -1,5 C 10,9 C 8,4 km/h (2 Bft)
20.04.2019 21:48 10,7 C 7,5 C 42 % 1030,8 hPa 0,0 l/m 5,1 km/h (1 Bft) W-SW 247 -1,7 C 10,7 C 7,5 km/h (2 Bft)
20.04.2019 21:46 10,7 C 7,9 C 42 % 1030,8 hPa 0,0 l/m 4,1 km/h (1 Bft) W-SW 247 -1,7 C 10,7 C 8,7 km/h (2 Bft)
20.04.2019 21:44 10,8 C 7,9 C 42 % 1030,8 hPa 0,0 l/m 2,7 km/h (1 Bft) W 270 -1,6 C 10,8 C 8,7 km/h (2 Bft)
20.04.2019 21:42 10,9 C 7,8 C 42 % 1030,8 hPa 0,0 l/m 1,4 km/h (1 Bft) W 270 -1,5 C 10,9 C 7,2 km/h (2 Bft)
20.04.2019 21:40 10,8 C 7,3 C 42 % 1030,9 hPa 0,0 l/m 0,7 km/h (0 Bft) W-SW 247 -1,6 C 10,8 C 2,7 km/h (1 Bft)
20.04.2019 21:38 10,8 C 7,3 C 42 % 1030,9 hPa 0,0 l/m 1,7 km/h (1 Bft) SO 135 -1,6 C 10,8 C 2,7 km/h (1 Bft)
20.04.2019 21:36 10,7 C 7,4 C 42 % 1030,9 hPa 0,0 l/m 1,7 km/h (1 Bft) NW 315 -1,7 C 10,7 C 0,0 km/h (0 Bft)
20.04.2019 21:34 10,7 C 7,1 C 42 % 1030,9 hPa 0,0 l/m 1,9 km/h (1 Bft) O 90 -1,7 C 10,7 C 0,0 km/h (0 Bft)
20.04.2019 21:32 10,7 C 7,1 C 42 % 1030,9 hPa 0,0 l/m 2,2 km/h (1 Bft) W 270 -1,7 C 10,7 C 0,0 km/h (0 Bft)
20.04.2019 21:30 10,7 C 7,3 C 42 % 1030,9 hPa 0,0 l/m 2,2 km/h (1 Bft) SO 135 -1,7 C 10,7 C 8,0 km/h (2 Bft)
20.04.2019 21:28 10,7 C 7,7 C 42 % 1030,9 hPa 0,0 l/m 1,9 km/h (1 Bft) SO 135 -1,7 C 10,7 C 8,0 km/h (2 Bft)
20.04.2019 21:26 10,8 C 7,7 C 42 % 1030,9 hPa 0,0 l/m 1,4 km/h (1 Bft) N-NO 22 -1,6 C 10,8 C 3,6 km/h (1 Bft)
20.04.2019 21:24 10,9 C 7,8 C 42 % 1030,9 hPa 0,0 l/m 1,2 km/h (1 Bft) NO 45 -1,5 C 10,9 C 3,6 km/h (1 Bft)
20.04.2019 21:22 10,7 C 7,7 C 42 % 1030,9 hPa 0,0 l/m 1,0 km/h (0 Bft) O-NO 67 -1,7 C 10,7 C 0,0 km/h (0 Bft)
20.04.2019 21:20 10,8 C 7,1 C 42 % 1030,9 hPa 0,0 l/m 1,2 km/h (1 Bft) S-SO 157 -1,6 C 10,8 C 2,7 km/h (1 Bft)
20.04.2019 21:18 10,7 C 6,6 C 42 % 1030,9 hPa 0,0 l/m 0,7 km/h (0 Bft) S-SW 202 -1,7 C 10,7 C 2,7 km/h (1 Bft)
20.04.2019 21:16 10,7 C 6,6 C 42 % 1030,9 hPa 0,0 l/m 0,7 km/h (0 Bft) O-SO 112 -1,7 C 10,7 C 3,1 km/h (1 Bft)
20.04.2019 21:14 10,8 C 6,8 C 42 % 1030,9 hPa 0,0 l/m 0,7 km/h (0 Bft) SO 135 -1,6 C 10,8 C 3,1 km/h (1 Bft)
20.04.2019 21:12 10,7 C 7,2 C 42 % 1030,9 hPa 0,0 l/m 0,5 km/h (0 Bft) S-SO 157 -1,7 C 10,7 C 0,0 km/h (0 Bft)
20.04.2019 21:10 10,7 C 6,3 C 42 % 1030,9 hPa 0,0 l/m 0,2 km/h (0 Bft) S-SW 202 -1,7 C 10,7 C 0,0 km/h (0 Bft)
20.04.2019 21:08 10,6 C 6,7 C 42 % 1030,9 hPa 0,0 l/m 0,2 km/h (0 Bft) W-SW 247 -1,8 C 10,6 C 0,0 km/h (0 Bft)
20.04.2019 21:06 10,6 C 6,7 C 42 % 1030,9 hPa 0,0 l/m 0,2 km/h (0 Bft) NO 45 -1,8 C 10,6 C 0,0 km/h (0 Bft)
20.04.2019 21:04 10,5 C 6,6 C 42 % 1030,9 hPa 0,0 l/m 0,0 km/h (0 Bft) W-NW 292 -1,9 C 10,5 C 0,0 km/h (0 Bft)
20.04.2019 21:02 10,5 C 6,9 C 42 % 1030,9 hPa 0,0 l/m 0,0 km/h (0 Bft) NW 315 -1,9 C 10,5 C 0,0 km/h (0 Bft)
20.04.2019 21:00 10,6 C 6,8 C 42 % 1030,7 hPa 0,0 l/m 0,0 km/h (0 Bft) N-NO 22 -1,8 C 10,6 C 0,0 km/h (0 Bft)
20.04.2019 20:58 10,6 C 6,4 C 42 % 1030,7 hPa 0,0 l/m 0,0 km/h (0 Bft) SO 135 -1,8 C 10,6 C 0,0 km/h (0 Bft)
20.04.2019 20:56 10,6 C 6,2 C 42 % 1030,7 hPa 0,0 l/m 0,5 km/h (0 Bft) O-SO 112 -1,8 C 10,6 C 0,0 km/h (0 Bft)
20.04.2019 20:54 10,6 C 6,3 C 42 % 1030,7 hPa 0,0 l/m 1,2 km/h (1 Bft) W-SW 247 -1,8 C 10,6 C 0,0 km/h (0 Bft)
20.04.2019 20:52 10,6 C 5,8 C 42 % 1030,7 hPa 0,0 l/m 1,7 km/h (1 Bft) SW 225 -1,8 C 10,6 C 0,0 km/h (0 Bft)
20.04.2019 20:50 10,6 C 6,2 C 42 % 1030,7 hPa 0,0 l/m 1,9 km/h (1 Bft) SO 135 -1,8 C 10,6 C 0,0 km/h (0 Bft)
20.04.2019 20:48 10,7 C 5,9 C 42 % 1030,7 hPa 0,0 l/m 2,2 km/h (1 Bft) SO 135 -1,7 C 10,7 C 3,6 km/h (1 Bft)
20.04.2019 20:46 10,7 C 6,1 C 42 % 1030,7 hPa 0,0 l/m 1,9 km/h (1 Bft) SO 135 -1,7 C 10,7 C 3,9 km/h (1 Bft)
20.04.2019 20:44 10,7 C 6,7 C 42 % 1030,7 hPa 0,0 l/m 1,4 km/h (1 Bft) SO 135 -1,7 C 10,7 C 3,9 km/h (1 Bft)
20.04.2019 20:42 10,7 C 6,9 C 42 % 1030,7 hPa 0,0 l/m 1,4 km/h (1 Bft) S 180 -1,7 C 10,7 C 3,1 km/h (1 Bft)
20.04.2019 20:40 10,7 C 6,5 C 42 % 1030,7 hPa 0,0 l/m 1,0 km/h (0 Bft) NO 45 -1,7 C 10,7 C 0,0 km/h (0 Bft)
20.04.2019 20:38 10,8 C 7,6 C 42 % 1030,7 hPa 0,0 l/m 0,7 km/h (0 Bft) SO 135 -1,6 C 10,8 C 0,0 km/h (0 Bft)
20.04.2019 20:36 10,8 C 7,2 C 42 % 1030,7 hPa 0,0 l/m 0,7 km/h (0 Bft) SO 135 -1,6 C 10,8 C 0,0 km/h (0 Bft)
20.04.2019 20:34 10,8 C 7,1 C 42 % 1030,7 hPa 0,0 l/m 0,7 km/h (0 Bft) W-SW 247 -1,6 C 10,8 C 4,3 km/h (1 Bft)
20.04.2019 20:32 10,8 C 6,6 C 42 % 1030,7 hPa 0,0 l/m 0,7 km/h (0 Bft) SO 135 -1,6 C 10,8 C 4,3 km/h (1 Bft)
20.04.2019 20:30 10,8 C 5,8 C 42 % 1030,7 hPa 0,0 l/m 0,7 km/h (0 Bft) O-SO 112 -1,6 C 10,8 C 0,0 km/h (0 Bft)
20.04.2019 20:28 10,9 C 6,3 C 42 % 1030,7 hPa 0,0 l/m 0,7 km/h (0 Bft) SO 135 -1,5 C 10,9 C 0,0 km/h (0 Bft)
20.04.2019 20:26 11,0 C 6,2 C 41 % 1030,7 hPa 0,0 l/m 1,0 km/h (0 Bft) S-SW 202 -1,7 C 11,0 C 3,9 km/h (1 Bft)
20.04.2019 20:24 11,0 C 5,9 C 41 % 1030,7 hPa 0,0 l/m 1,2 km/h (1 Bft) SO 135 -1,7 C 11,0 C 3,9 km/h (1 Bft)
20.04.2019 20:22 11,0 C 6,6 C 41 % 1030,7 hPa 0,0 l/m 1,4 km/h (1 Bft) SO 135 -1,7 C 11,0 C 2,9 km/h (1 Bft)
20.04.2019 20:20 11,1 C 6,9 C 41 % 1030,6 hPa 0,0 l/m 1,2 km/h (1 Bft) O-SO 112 -1,6 C 11,1 C 2,9 km/h (1 Bft)
20.04.2019 20:18 11,1 C 6,9 C 41 % 1030,6 hPa 0,0 l/m 1,2 km/h (1 Bft) SO 135 -1,6 C 11,1 C 2,4 km/h (1 Bft)
20.04.2019 20:16 11,2 C 6,8 C 41 % 1030,6 hPa 0,0 l/m 1,2 km/h (1 Bft) SO 135 -1,6 C 11,2 C 2,7 km/h (1 Bft)
20.04.2019 20:14 11,2 C 6,9 C 41 % 1030,6 hPa 0,0 l/m 1,0 km/h (0 Bft) SW 225 -1,6 C 11,2 C 2,7 km/h (1 Bft)
20.04.2019 20:12 11,3 C 7,1 C 41 % 1030,6 hPa 0,0 l/m 1,0 km/h (0 Bft) W-SW 247 -1,5 C 11,3 C 4,1 km/h (1 Bft)
20.04.2019 20:10 11,4 C 7,6 C 41 % 1030,6 hPa 0,0 l/m 1,2 km/h (1 Bft) W-SW 247 -1,4 C 11,4 C 4,1 km/h (1 Bft)
20.04.2019 20:08 11,4 C 8,1 C 41 % 1030,6 hPa 0,0 l/m 1,0 km/h (0 Bft) S-SO 157 -1,4 C 11,4 C 2,4 km/h (1 Bft)
20.04.2019 20:06 11,5 C 8,0 C 41 % 1030,6 hPa 0,0 l/m 1,4 km/h (1 Bft) S-SW 202 -1,3 C 11,5 C 2,4 km/h (1 Bft)
20.04.2019 20:04 11,5 C 7,9 C 41 % 1030,6 hPa 0,0 l/m 1,7 km/h (1 Bft) W-NW 292 -1,3 C 11,5 C 3,4 km/h (1 Bft)
20.04.2019 20:02 11,5 C 7,5 C 41 % 1030,6 hPa 0,0 l/m 1,7 km/h (1 Bft) W-SW 247 -1,3 C 11,5 C 3,4 km/h (1 Bft)
20.04.2019 20:00 11,6 C 6,9 C 41 % 1030,6 hPa 0,0 l/m 1,4 km/h (1 Bft) W-SW 247 -1,2 C 11,6 C 2,4 km/h (1 Bft)
20.04.2019 19:58 11,6 C 8,1 C 41 % 1030,6 hPa 0,0 l/m 1,7 km/h (1 Bft) W 270 -1,2 C 11,6 C 4,6 km/h (1 Bft)
20.04.2019 19:56 11,6 C 8,2 C 41 % 1030,6 hPa 0,0 l/m 1,7 km/h (1 Bft) W-SW 247 -1,2 C 11,6 C 4,6 km/h (1 Bft)
20.04.2019 19:54 11,7 C 8,0 C 41 % 1030,6 hPa 0,0 l/m 1,0 km/h (0 Bft) W 270 -1,1 C 11,7 C 2,4 km/h (1 Bft)
20.04.2019 19:52 11,7 C 8,0 C 41 % 1030,6 hPa 0,0 l/m 0,7 km/h (0 Bft) NW 315 -1,1 C 11,7 C 2,9 km/h (1 Bft)
20.04.2019 19:50 11,8 C 7,9 C 41 % 1030,6 hPa 0,0 l/m 1,2 km/h (1 Bft) NW 315 -1,0 C 11,8 C 2,9 km/h (1 Bft)
20.04.2019 19:48 11,9 C 7,7 C 41 % 1030,6 hPa 0,0 l/m 1,2 km/h (1 Bft) W 270 -0,9 C 11,9 C 0,0 km/h (0 Bft)
20.04.2019 19:46 12,0 C 7,9 C 41 % 1030,6 hPa 0,0 l/m 1,4 km/h (1 Bft) NW 315 -0,8 C 12,0 C 0,0 km/h (0 Bft)
20.04.2019 19:44 12,0 C 8,4 C 41 % 1030,6 hPa 0,0 l/m 1,4 km/h (1 Bft) W 270 -0,8 C 12,0 C 2,4 km/h (1 Bft)
20.04.2019 19:42 12,1 C 8,7 C 41 % 1030,6 hPa 0,0 l/m 1,4 km/h (1 Bft) O-NO 67 -0,7 C 12,1 C 5,8 km/h (2 Bft)
20.04.2019 19:40 12,2 C 9,0 C 41 % 1030,7 hPa 0,0 l/m 1,4 km/h (1 Bft) W 270 -0,7 C 12,2 C 5,8 km/h (2 Bft)
20.04.2019 19:38 12,2 C 7,7 C 41 % 1030,7 hPa 0,0 l/m 0,7 km/h (0 Bft) N-NW 337 -0,7 C 12,2 C 2,4 km/h (1 Bft)
20.04.2019 19:36 12,2 C 8,0 C 41 % 1030,7 hPa 0,0 l/m 1,0 km/h (0 Bft) W-SW 247 -0,7 C 12,2 C 0,0 km/h (0 Bft)
20.04.2019 19:34 12,2 C 8,3 C 41 % 1030,7 hPa 0,0 l/m 1,0 km/h (0 Bft) W-SW 247 -0,7 C 12,2 C 2,4 km/h (1 Bft)
20.04.2019 19:32 12,3 C 8,6 C 41 % 1030,7 hPa 0,0 l/m 1,2 km/h (1 Bft) W-SW 247 -0,6 C 12,3 C 2,4 km/h (1 Bft)
20.04.2019 19:30 12,4 C 8,6 C 41 % 1030,7 hPa 0,0 l/m 1,2 km/h (1 Bft) W 270 -0,5 C 12,4 C 4,3 km/h (1 Bft)
20.04.2019 19:28 12,5 C 8,1 C 41 % 1030,7 hPa 0,0 l/m 1,2 km/h (1 Bft) W-SW 247 -0,4 C 12,5 C 4,3 km/h (1 Bft)
20.04.2019 19:26 12,5 C 8,5 C 41 % 1030,7 hPa 0,0 l/m 0,7 km/h (0 Bft) W 270 -0,4 C 12,5 C 2,7 km/h (1 Bft)
20.04.2019 19:24 12,6 C 8,2 C 41 % 1030,7 hPa 0,0 l/m 0,5 km/h (0 Bft) W 270 -0,3 C 12,6 C 4,1 km/h (1 Bft)
20.04.2019 19:22 12,7 C 8,9 C 41 % 1030,7 hPa 0,0 l/m 0,7 km/h (0 Bft) W-SW 247 -0,2 C 12,7 C 4,1 km/h (1 Bft)
20.04.2019 19:20 12,9 C 9,2 C 41 % 1030,9 hPa 0,0 l/m 0,5 km/h (0 Bft) SW 225 -0,0 C 12,9 C 0,0 km/h (0 Bft)
20.04.2019 19:18 13,0 C 8,6 C 39 % 1030,9 hPa 0,0 l/m 0,5 km/h (0 Bft) SO 135 -0,6 C 13,0 C 0,0 km/h (0 Bft)
20.04.2019 19:16 13,0 C 8,8 C 39 % 1030,9 hPa 0,0 l/m 0,5 km/h (0 Bft) W-SW 247 -0,6 C 13,0 C 0,0 km/h (0 Bft)
20.04.2019 19:14 13,0 C 9,3 C 39 % 1030,9 hPa 0,0 l/m 0,7 km/h (0 Bft) O-SO 112 -0,6 C 13,0 C 3,6 km/h (1 Bft)
20.04.2019 19:12 13,1 C 9,0 C 39 % 1030,9 hPa 0,0 l/m 1,0 km/h (0 Bft) SO 135 -0,5 C 13,1 C 3,6 km/h (1 Bft)
20.04.2019 19:10 13,2 C 9,6 C 39 % 1030,9 hPa 0,0 l/m 1,2 km/h (1 Bft) N-NO 22 -0,4 C 13,2 C 0,0 km/h (0 Bft)
20.04.2019 19:08 13,4 C 10,0 C 38 % 1030,9 hPa 0,0 l/m 1,2 km/h (1 Bft) NO 45 -0,6 C 13,4 C 3,6 km/h (1 Bft)
20.04.2019 19:06 13,4 C 9,5 C 38 % 1030,9 hPa 0,0 l/m 1,2 km/h (1 Bft) S 180 -0,6 C 13,4 C 5,3 km/h (1 Bft)
20.04.2019 19:04 13,5 C 10,1 C 38 % 1030,9 hPa 0,0 l/m 1,4 km/h (1 Bft) O-NO 67 -0,5 C 13,5 C 5,3 km/h (1 Bft)
20.04.2019 19:02 13,4 C 10,3 C 38 % 1030,9 hPa 0,0 l/m 1,4 km/h (1 Bft) N-NW 337 -0,6 C 13,4 C 5,1 km/h (1 Bft)
20.04.2019 19:00 13,4 C 9,3 C 38 % 1031,2 hPa 0,0 l/m 1,0 km/h (0 Bft) O-NO 67 -0,6 C 13,4 C 5,1 km/h (1 Bft)
20.04.2019 18:58 13,4 C 9,5 C 38 % 1031,2 hPa 0,0 l/m 1,2 km/h (1 Bft) S 180 -0,6 C 13,4 C 0,0 km/h (0 Bft)
20.04.2019 18:56 13,5 C 10,1 C 38 % 1031,2 hPa 0,0 l/m 1,7 km/h (1 Bft) W 270 -0,5 C 13,5 C 3,9 km/h (1 Bft)
20.04.2019 18:54 13,6 C 9,9 C 38 % 1031,2 hPa 0,0 l/m 1,7 km/h (1 Bft) NW 315 -0,4 C 13,6 C 3,9 km/h (1 Bft)
20.04.2019 18:52 13,7 C 9,9 C 38 % 1031,2 hPa 0,0 l/m 1,7 km/h (1 Bft) SW 225 -0,4 C 13,7 C 2,9 km/h (1 Bft)
20.04.2019 18:50 13,8 C 10,2 C 38 % 1031,2 hPa 0,0 l/m 1,4 km/h (1 Bft) N-NO 22 -0,3 C 13,8 C 4,8 km/h (1 Bft)
20.04.2019 18:48 13,8 C 10,2 C 38 % 1031,2 hPa 0,0 l/m 1,4 km/h (1 Bft) SW 225 -0,3 C 13,8 C 4,8 km/h (1 Bft)
20.04.2019 18:46 14,0 C 10,6 C 37 % 1031,2 hPa 0,0 l/m 1,7 km/h (1 Bft) O-NO 67 -0,4 C 14,0 C 2,9 km/h (1 Bft)
20.04.2019 18:44 14,1 C 10,4 C 37 % 1031,2 hPa 0,0 l/m 1,9 km/h (1 Bft) SO 135 -0,4 C 14,1 C 2,9 km/h (1 Bft)
20.04.2019 18:42 14,1 C 10,2 C 37 % 1031,2 hPa 0,0 l/m 1,7 km/h (1 Bft) N-NO 22 -0,4 C 14,1 C 0,0 km/h (0 Bft)
20.04.2019 18:40 14,2 C 10,8 C 37 % 1031,2 hPa 0,0 l/m 2,2 km/h (1 Bft) O-NO 67 -0,3 C 14,2 C 3,1 km/h (1 Bft)
20.04.2019 18:38 14,3 C 11,4 C 37 % 1031,2 hPa 0,0 l/m 1,9 km/h (1 Bft) W 270 -0,2 C 14,3 C 9,7 km/h (2 Bft)
20.04.2019 18:36 14,3 C 10,8 C 37 % 1031,2 hPa 0,0 l/m 1,9 km/h (1 Bft) O-NO 67 -0,2 C 14,3 C 9,7 km/h (2 Bft)
20.04.2019 18:34 14,4 C 10,8 C 37 % 1031,2 hPa 0,0 l/m 1,7 km/h (1 Bft) O-NO 67 -0,1 C 14,4 C 4,3 km/h (1 Bft)
20.04.2019 18:32 14,5 C 11,4 C 37 % 1031,2 hPa 0,0 l/m 2,2 km/h (1 Bft) NW 315 -0,0 C 14,5 C 4,8 km/h (1 Bft)
20.04.2019 18:30 14,6 C 10,8 C 37 % 1031,2 hPa 0,0 l/m 1,9 km/h (1 Bft) NW 315 0,1 C 14,6 C 4,8 km/h (1 Bft)
20.04.2019 18:28 14,6 C 11,3 C 37 % 1031,2 hPa 0,0 l/m 1,9 km/h (1 Bft) W-SW 247 0,1 C 14,6 C 6,0 km/h (2 Bft)
20.04.2019 18:26 14,8 C 11,5 C 37 % 1031,2 hPa 0,0 l/m 1,9 km/h (1 Bft) N-NO 22 0,3 C 14,8 C 6,0 km/h (2 Bft)
20.04.2019 18:24 14,9 C 11,2 C 37 % 1031,2 hPa 0,0 l/m 2,2 km/h (1 Bft) S 180 0,3 C 14,9 C 3,1 km/h (1 Bft)
20.04.2019 18:22 14,9 C 10,8 C 37 % 1031,2 hPa 0,0 l/m 2,4 km/h (1 Bft) N-NO 22 0,3 C 14,9 C 3,1 km/h (1 Bft)
20.04.2019 18:20 15,0 C 11,4 C 37 % 1031,2 hPa 0,0 l/m 2,4 km/h (1 Bft) O-SO 112 0,4 C 15,0 C 2,7 km/h (1 Bft)
20.04.2019 18:18 15,2 C 11,9 C 37 % 1031,2 hPa 0,0 l/m 2,7 km/h (1 Bft) W 270 0,6 C 15,2 C 2,7 km/h (1 Bft)
20.04.2019 18:16 15,2 C 12,0 C 37 % 1031,2 hPa 0,0 l/m 3,1 km/h (1 Bft) O-NO 67 0,6 C 15,2 C 3,4 km/h (1 Bft)
20.04.2019 18:14 15,3 C 12,0 C 37 % 1031,2 hPa 0,0 l/m 3,1 km/h (1 Bft) NO 45 0,7 C 15,3 C 5,3 km/h (1 Bft)
20.04.2019 18:12 15,5 C 12,2 C 36 % 1031,2 hPa 0,0 l/m 3,1 km/h (1 Bft) SW 225 0,5 C 15,5 C 5,8 km/h (2 Bft)
20.04.2019 18:10 15,6 C 12,1 C 36 % 1031,2 hPa 0,0 l/m 2,7 km/h (1 Bft) N-NW 337 0,6 C 15,6 C 5,8 km/h (2 Bft)
20.04.2019 18:08 15,7 C 12,5 C 36 % 1031,2 hPa 0,0 l/m 3,6 km/h (1 Bft) N-NW 337 0,7 C 15,7 C 5,1 km/h (1 Bft)
20.04.2019 18:06 15,8 C 12,4 C 36 % 1031,2 hPa 0,0 l/m 4,3 km/h (1 Bft) NO 45 0,8 C 15,8 C 5,1 km/h (1 Bft)
20.04.2019 18:04 15,9 C 12,2 C 36 % 1031,2 hPa 0,0 l/m 3,9 km/h (1 Bft) N-NO 22 0,9 C 15,9 C 5,1 km/h (1 Bft)
20.04.2019 18:02 16,1 C 12,4 C 38 % 1031,2 hPa 0,0 l/m 3,6 km/h (1 Bft) NW 315 1,8 C 16,1 C 6,8 km/h (2 Bft)
20.04.2019 18:00 16,2 C 12,6 C 38 % 1031,2 hPa 0,0 l/m 3,6 km/h (1 Bft) O-NO 67 1,9 C 16,2 C 11,1 km/h (2 Bft)
20.04.2019 17:58 16,4 C 12,2 C 38 % 1031,2 hPa 0,0 l/m 3,4 km/h (1 Bft) N-NO 22 2,1 C 16,4 C 11,1 km/h (2 Bft)
20.04.2019 17:56 16,5 C 11,9 C 38 % 1031,2 hPa 0,0 l/m 3,1 km/h (1 Bft) O 90 2,1 C 16,5 C 7,7 km/h (2 Bft)
20.04.2019 17:54 16,6 C 12,0 C 38 % 1031,2 hPa 0,0 l/m 3,4 km/h (1 Bft) N 360 2,2 C 16,6 C 6,0 km/h (2 Bft)
20.04.2019 17:52 16,6 C 12,7 C 38 % 1031,2 hPa 0,0 l/m 3,1 km/h (1 Bft) NW 315 2,2 C 16,6 C 7,0 km/h (2 Bft)
20.04.2019 17:50 16,6 C 13,0 C 38 % 1031,2 hPa 0,0 l/m 3,1 km/h (1 Bft) N-NO 22 2,2 C 16,6 C 7,0 km/h (2 Bft)
20.04.2019 17:48 16,5 C 13,7 C 38 % 1031,2 hPa 0,0 l/m 2,9 km/h (1 Bft) NO 45 2,1 C 16,5 C 9,2 km/h (2 Bft)
20.04.2019 17:46 16,7 C 14,4 C 38 % 1031,2 hPa 0,0 l/m 3,4 km/h (1 Bft) NO 45 2,3 C 16,7 C 9,2 km/h (2 Bft)
20.04.2019 17:44 16,6 C 14,7 C 38 % 1031,2 hPa 0,0 l/m 2,9 km/h (1 Bft) NO 45 2,2 C 16,6 C 8,9 km/h (2 Bft)
20.04.2019 17:42 16,6 C 14,5 C 38 % 1031,2 hPa 0,0 l/m 2,7 km/h (1 Bft) N-NO 22 2,2 C 16,6 C 2,7 km/h (1 Bft)
20.04.2019 17:40 16,5 C 13,9 C 37 % 1031,4 hPa 0,0 l/m 2,9 km/h (1 Bft) NO 45 1,8 C 16,5 C 3,9 km/h (1 Bft)
20.04.2019 17:38 16,6 C 13,4 C 38 % 1031,4 hPa 0,0 l/m 3,1 km/h (1 Bft) SO 135 2,2 C 16,6 C 9,2 km/h (2 Bft)
20.04.2019 17:36 16,8 C 13,8 C 37 % 1031,4 hPa 0,0 l/m 3,9 km/h (1 Bft) O 90 2,0 C 16,8 C 9,2 km/h (2 Bft)
20.04.2019 17:34 16,9 C 13,8 C 38 % 1031,4 hPa 0,0 l/m 3,9 km/h (1 Bft) N-NO 22 2,5 C 16,9 C 8,0 km/h (2 Bft)
20.04.2019 17:32 16,9 C 14,4 C 37 % 1031,4 hPa 0,0 l/m 4,3 km/h (1 Bft) O-NO 67 2,1 C 16,9 C 8,0 km/h (2 Bft)
20.04.2019 17:30 16,9 C 16,0 C 38 % 1031,4 hPa 0,0 l/m 4,1 km/h (1 Bft) O-NO 67 2,5 C 16,9 C 3,4 km/h (1 Bft)
20.04.2019 17:28 16,9 C 16,7 C 37 % 1031,4 hPa 0,0 l/m 5,3 km/h (1 Bft) N-NO 22 2,1 C 16,9 C 6,5 km/h (2 Bft)
20.04.2019 17:26 17,0 C 17,1 C 37 % 1031,4 hPa 0,0 l/m 5,3 km/h (1 Bft) N 360 2,2 C 17,0 C 13,0 km/h (3 Bft)
20.04.2019 17:24 17,0 C 17,0 C 37 % 1031,4 hPa 0,0 l/m 4,8 km/h (1 Bft) N-NO 22 2,2 C 17,0 C 13,0 km/h (3 Bft)
20.04.2019 17:22 17,0 C 17,3 C 37 % 1031,4 hPa 0,0 l/m 4,8 km/h (1 Bft) SO 135 2,2 C 17,0 C 5,6 km/h (1 Bft)
20.04.2019 17:20 17,0 C 17,4 C 37 % 1031,6 hPa 0,0 l/m 5,1 km/h (1 Bft) O-SO 112 2,2 C 17,0 C 10,4 km/h (2 Bft)
20.04.2019 17:18 17,1 C 17,2 C 37 % 1031,6 hPa 0,0 l/m 4,8 km/h (1 Bft) NO 45 2,3 C 17,1 C 10,4 km/h (2 Bft)
20.04.2019 17:16 17,1 C 17,2 C 37 % 1031,6 hPa 0,0 l/m 4,8 km/h (1 Bft) O-NO 67 2,3 C 17,1 C 9,7 km/h (2 Bft)
20.04.2019 17:14 17,1 C 17,3 C 37 % 1031,6 hPa 0,0 l/m 4,8 km/h (1 Bft) NO 45 2,3 C 17,1 C 9,7 km/h (2 Bft)
20.04.2019 17:12 17,2 C 17,7 C 37 % 1031,6 hPa 0,0 l/m 4,8 km/h (1 Bft) N-NW 337 2,4 C 17,2 C 5,1 km/h (1 Bft)
20.04.2019 17:10 17,2 C 17,6 C 37 % 1031,6 hPa 0,0 l/m 4,3 km/h (1 Bft) O-NO 67 2,4 C 17,2 C 5,1 km/h (1 Bft)
20.04.2019 17:08 17,2 C 17,8 C 37 % 1031,6 hPa 0,0 l/m 4,3 km/h (1 Bft) SO 135 2,4 C 17,2 C 8,7 km/h (2 Bft)
20.04.2019 17:06 17,1 C 17,6 C 37 % 1031,6 hPa 0,0 l/m 4,1 km/h (1 Bft) O-NO 67 2,3 C 17,1 C 8,7 km/h (2 Bft)
20.04.2019 17:04 17,4 C 18,2 C 37 % 1031,6 hPa 0,0 l/m 3,9 km/h (1 Bft) N-NO 22 2,6 C 17,4 C 8,7 km/h (2 Bft)
20.04.2019 17:02 17,3 C 18,3 C 38 % 1031,6 hPa 0,0 l/m 4,1 km/h (1 Bft) N-NO 22 2,9 C 17,3 C 4,8 km/h (1 Bft)
20.04.2019 17:00 17,3 C 18,3 C 38 % 1031,7 hPa 0,0 l/m 4,6 km/h (1 Bft) NW 315 2,9 C 17,3 C 4,8 km/h (1 Bft)
20.04.2019 16:58 17,4 C 18,8 C 38 % 1031,7 hPa 0,0 l/m 5,3 km/h (1 Bft) NW 315 2,9 C 17,4 C 4,8 km/h (1 Bft)
20.04.2019 16:56 17,2 C 18,3 C 37 % 1031,7 hPa 0,0 l/m 6,0 km/h (2 Bft) O-NO 67 2,4 C 17,2 C 3,9 km/h (1 Bft)
20.04.2019 16:54 17,2 C 17,8 C 37 % 1031,7 hPa 0,0 l/m 6,3 km/h (2 Bft) S-SO 157 2,4 C 17,2 C 5,6 km/h (1 Bft)
20.04.2019 16:52 17,2 C 17,9 C 37 % 1031,7 hPa 0,0 l/m 6,8 km/h (2 Bft) O-NO 67 2,4 C 17,0 C 8,7 km/h (2 Bft)
20.04.2019 16:50 17,3 C 18,2 C 37 % 1031,7 hPa 0,0 l/m 6,8 km/h (2 Bft) W-NW 292 2,5 C 17,1 C 8,7 km/h (2 Bft)
20.04.2019 16:48 17,4 C 18,2 C 37 % 1031,7 hPa 0,0 l/m 6,3 km/h (2 Bft) S-SO 157 2,6 C 17,4 C 13,8 km/h (3 Bft)
20.04.2019 16:46 17,4 C 18,5 C 38 % 1031,7 hPa 0,0 l/m 6,8 km/h (2 Bft) O-NO 67 2,9 C 17,2 C 13,8 km/h (3 Bft)
20.04.2019 16:44 17,4 C 18,4 C 37 % 1031,7 hPa 0,0 l/m 7,0 km/h (2 Bft) O-NO 67 2,6 C 17,1 C 9,9 km/h (2 Bft)
20.04.2019 16:42 17,3 C 17,9 C 37 % 1031,7 hPa 0,0 l/m 6,8 km/h (2 Bft) N-NO 22 2,5 C 17,1 C 9,9 km/h (2 Bft)
20.04.2019 16:40 17,3 C 18,3 C 37 % 1031,7 hPa 0,0 l/m 6,0 km/h (2 Bft) O-SO 112 2,5 C 17,3 C 8,9 km/h (2 Bft)
20.04.2019 16:38 17,3 C 18,1 C 37 % 1031,7 hPa 0,0 l/m 6,0 km/h (2 Bft) SO 135 2,5 C 17,3 C 7,7 km/h (2 Bft)
20.04.2019 16:36 17,2 C 17,9 C 37 % 1031,7 hPa 0,0 l/m 5,1 km/h (1 Bft) O 90 2,4 C 17,2 C 9,7 km/h (2 Bft)
20.04.2019 16:34 17,4 C 18,2 C 37 % 1031,7 hPa 0,0 l/m 5,1 km/h (1 Bft) O-SO 112 2,6 C 17,4 C 11,1 km/h (2 Bft)
20.04.2019 16:32 17,5 C 18,6 C 38 % 1031,7 hPa 0,0 l/m 4,8 km/h (1 Bft) S 180 3,0 C 17,5 C 11,1 km/h (2 Bft)
20.04.2019 16:30 17,4 C 18,1 C 37 % 1031,7 hPa 0,0 l/m 5,3 km/h (1 Bft) N-NO 22 2,6 C 17,4 C 8,2 km/h (2 Bft)
20.04.2019 16:28 17,5 C 18,7 C 38 % 1031,7 hPa 0,0 l/m 5,6 km/h (1 Bft) O-NO 67 3,0 C 17,5 C 5,6 km/h (1 Bft)
20.04.2019 16:26 17,4 C 18,2 C 37 % 1031,7 hPa 0,0 l/m 5,6 km/h (1 Bft) O-NO 67 2,6 C 17,4 C 7,7 km/h (2 Bft)
20.04.2019 16:24 17,3 C 18,2 C 37 % 1031,7 hPa 0,0 l/m 6,5 km/h (2 Bft) O-SO 112 2,5 C 17,3 C 7,7 km/h (2 Bft)
20.04.2019 16:22 17,5 C 18,2 C 37 % 1031,7 hPa 0,0 l/m 7,0 km/h (2 Bft) SW 225 2,7 C 17,2 C 7,2 km/h (2 Bft)
20.04.2019 16:20 17,5 C 18,4 C 37 % 1031,9 hPa 0,0 l/m 7,2 km/h (2 Bft) O 90 2,7 C 17,1 C 9,7 km/h (2 Bft)
20.04.2019 16:18 17,5 C 18,6 C 38 % 1031,9 hPa 0,0 l/m 7,2 km/h (2 Bft) SO 135 3,0 C 17,1 C 9,7 km/h (2 Bft)
20.04.2019 16:16 17,4 C 17,9 C 37 % 1031,9 hPa 0,0 l/m 7,5 km/h (2 Bft) O-SO 112 2,6 C 16,9 C 15,0 km/h (3 Bft)
20.04.2019 16:14 17,5 C 18,6 C 38 % 1031,9 hPa 0,0 l/m 8,0 km/h (2 Bft) O-NO 67 3,0 C 16,7 C 15,0 km/h (3 Bft)
20.04.2019 16:12 17,5 C 18,5 C 38 % 1031,9 hPa 0,0 l/m 7,2 km/h (2 Bft) O-NO 67 3,0 C 17,1 C 13,0 km/h (3 Bft)
20.04.2019 16:10 17,4 C 18,4 C 37 % 1031,9 hPa 0,0 l/m 6,3 km/h (2 Bft) S 180 2,6 C 17,4 C 11,3 km/h (2 Bft)
20.04.2019 16:08 17,5 C 18,4 C 38 % 1031,9 hPa 0,0 l/m 6,3 km/h (2 Bft) NO 45 3,0 C 17,5 C 11,3 km/h (2 Bft)
20.04.2019 16:06 17,4 C 18,2 C 37 % 1031,9 hPa 0,0 l/m 6,0 km/h (2 Bft) S-SW 202 2,6 C 17,4 C 9,2 km/h (2 Bft)
20.04.2019 16:04 17,5 C 18,4 C 38 % 1031,9 hPa 0,0 l/m 5,1 km/h (1 Bft) SO 135 3,0 C 17,5 C 9,2 km/h (2 Bft)
20.04.2019 16:02 17,7 C 18,8 C 38 % 1031,9 hPa 0,0 l/m 5,3 km/h (1 Bft) NO 45 3,2 C 17,7 C 3,6 km/h (1 Bft)
20.04.2019 16:00 17,8 C 19,7 C 38 % 1031,9 hPa 0,0 l/m 6,3 km/h (2 Bft) S 180 3,3 C 17,8 C 4,8 km/h (1 Bft)
20.04.2019 15:58 17,7 C 19,3 C 38 % 1031,9 hPa 0,0 l/m 7,0 km/h (2 Bft) N-NO 22 3,2 C 17,4 C 7,0 km/h (2 Bft)
20.04.2019 15:56 17,6 C 18,7 C 38 % 1031,9 hPa 0,0 l/m 6,8 km/h (2 Bft) NW 315 3,1 C 17,4 C 7,0 km/h (2 Bft)
20.04.2019 15:54 17,7 C 18,7 C 38 % 1031,9 hPa 0,0 l/m 6,8 km/h (2 Bft) O-NO 67 3,2 C 17,5 C 9,4 km/h (2 Bft)
20.04.2019 15:52 17,8 C 19,2 C 38 % 1031,9 hPa 0,0 l/m 6,3 km/h (2 Bft) O-NO 67 3,3 C 17,8 C 9,9 km/h (2 Bft)
20.04.2019 15:50 17,7 C 18,8 C 38 % 1031,9 hPa 0,0 l/m 5,8 km/h (2 Bft) O 90 3,2 C 17,7 C 13,0 km/h (3 Bft)
20.04.2019 15:48 17,8 C 18,7 C 38 % 1031,9 hPa 0,0 l/m 5,6 km/h (1 Bft) S-SO 157 3,3 C 17,8 C 13,0 km/h (3 Bft)
20.04.2019 15:46 17,9 C 19,4 C 38 % 1031,9 hPa 0,0 l/m 5,6 km/h (1 Bft) NO 45 3,4 C 17,9 C 6,3 km/h (2 Bft)
20.04.2019 15:44 17,8 C 19,0 C 38 % 1031,9 hPa 0,0 l/m 6,3 km/h (2 Bft) N-NO 22 3,3 C 17,8 C 3,4 km/h (1 Bft)
20.04.2019 15:42 17,9 C 19,0 C 38 % 1031,9 hPa 0,0 l/m 7,0 km/h (2 Bft) NO 45 3,4 C 17,6 C 6,3 km/h (2 Bft)
20.04.2019 15:40 17,6 C 18,7 C 38 % 1032,0 hPa 0,0 l/m 7,0 km/h (2 Bft) S 180 3,1 C 17,3 C 9,7 km/h (2 Bft)
20.04.2019 15:38 17,7 C 18,7 C 38 % 1032,0 hPa 0,0 l/m 6,5 km/h (2 Bft) O-NO 67 3,2 C 17,7 C 9,7 km/h (2 Bft)
20.04.2019 15:36 17,8 C 18,9 C 38 % 1032,0 hPa 0,0 l/m 5,8 km/h (2 Bft) SW 225 3,3 C 17,8 C 10,4 km/h (2 Bft)
20.04.2019 15:34 18,0 C 19,2 C 38 % 1032,0 hPa 0,0 l/m 4,8 km/h (1 Bft) O 90 3,5 C 18,0 C 10,4 km/h (2 Bft)
20.04.2019 15:32 18,1 C 19,3 C 38 % 1032,0 hPa 0,0 l/m 4,8 km/h (1 Bft) O-NO 67 3,6 C 18,1 C 12,6 km/h (3 Bft)
20.04.2019 15:30 18,0 C 19,5 C 38 % 1032,0 hPa 0,0 l/m 4,6 km/h (1 Bft) N-NO 22 3,5 C 18,0 C 12,6 km/h (3 Bft)
20.04.2019 15:28 17,9 C 19,5 C 39 % 1032,0 hPa 0,0 l/m 5,1 km/h (1 Bft) O-NO 67 3,8 C 17,9 C 6,5 km/h (2 Bft)
20.04.2019 15:26 17,9 C 19,1 C 39 % 1032,0 hPa 0,0 l/m 5,6 km/h (1 Bft) W-NW 292 3,8 C 17,9 C 6,5 km/h (2 Bft)
20.04.2019 15:24 17,9 C 19,3 C 39 % 1032,0 hPa 0,0 l/m 5,8 km/h (2 Bft) O-NO 67 3,8 C 17,9 C 11,6 km/h (2 Bft)
20.04.2019 15:22 17,7 C 19,2 C 39 % 1032,0 hPa 0,0 l/m 5,8 km/h (2 Bft) O 90 3,6 C 17,7 C 12,6 km/h (3 Bft)
20.04.2019 15:20 17,7 C 18,9 C 38 % 1032,0 hPa 0,0 l/m 6,0 km/h (2 Bft) O-NO 67 3,2 C 17,7 C 12,6 km/h (3 Bft)
20.04.2019 15:18 18,0 C 19,0 C 39 % 1032,0 hPa 0,0 l/m 6,0 km/h (2 Bft) O-SO 112 3,8 C 18,0 C 12,1 km/h (2 Bft)
20.04.2019 15:16 18,0 C 19,2 C 39 % 1032,0 hPa 0,0 l/m 5,6 km/h (1 Bft) O-NO 67 3,8 C 18,0 C 14,7 km/h (3 Bft)
20.04.2019 15:14 17,9 C 18,8 C 39 % 1032,0 hPa 0,0 l/m 6,5 km/h (2 Bft) NO 45 3,8 C 17,9 C 14,7 km/h (3 Bft)
20.04.2019 15:12 17,8 C 18,7 C 39 % 1032,0 hPa 0,0 l/m 6,3 km/h (2 Bft) O-NO 67 3,7 C 17,8 C 10,1 km/h (2 Bft)
20.04.2019 15:10 17,9 C 19,0 C 39 % 1032,0 hPa 0,0 l/m 6,8 km/h (2 Bft) O-SO 112 3,8 C 17,7 C 10,1 km/h (2 Bft)
20.04.2019 15:08 17,5 C 18,2 C 38 % 1032,0 hPa 0,0 l/m 6,5 km/h (2 Bft) O-NO 67 3,0 C 17,5 C 8,0 km/h (2 Bft)
20.04.2019 15:06 17,2 C 17,9 C 38 % 1032,0 hPa 0,0 l/m 6,5 km/h (2 Bft) O-SO 112 2,8 C 17,2 C 14,0 km/h (3 Bft)
20.04.2019 15:04 17,4 C 18,0 C 38 % 1032,0 hPa 0,0 l/m 6,8 km/h (2 Bft) O-NO 67 2,9 C 17,2 C 14,0 km/h (3 Bft)
20.04.2019 15:02 17,4 C 18,2 C 38 % 1032,0 hPa 0,0 l/m 6,5 km/h (2 Bft) O-NO 67 2,9 C 17,4 C 8,2 km/h (2 Bft)
20.04.2019 15:00 17,6 C 18,3 C 39 % 1032,2 hPa 0,0 l/m 7,0 km/h (2 Bft) O-NO 67 3,5 C 17,3 C 8,2 km/h (2 Bft)
20.04.2019 14:58 17,5 C 18,6 C 39 % 1032,2 hPa 0,0 l/m 7,5 km/h (2 Bft) NO 45 3,4 C 17,0 C 7,7 km/h (2 Bft)
20.04.2019 14:56 17,4 C 17,8 C 38 % 1032,2 hPa 0,0 l/m 7,5 km/h (2 Bft) N-NO 22 2,9 C 16,9 C 12,8 km/h (3 Bft)
20.04.2019 14:54 17,8 C 18,7 C 39 % 1032,2 hPa 0,0 l/m 7,2 km/h (2 Bft) SO 135 3,7 C 17,4 C 12,8 km/h (3 Bft)
20.04.2019 14:52 17,9 C 18,5 C 39 % 1032,2 hPa 0,0 l/m 6,8 km/h (2 Bft) N-NO 22 3,8 C 17,7 C 11,3 km/h (2 Bft)
20.04.2019 14:50 17,7 C 18,3 C 39 % 1032,2 hPa 0,0 l/m 6,8 km/h (2 Bft) NO 45 3,6 C 17,5 C 12,1 km/h (2 Bft)
20.04.2019 14:48 17,9 C 18,5 C 39 % 1032,2 hPa 0,0 l/m 6,0 km/h (2 Bft) O-NO 67 3,8 C 17,9 C 12,1 km/h (2 Bft)
20.04.2019 14:46 17,9 C 18,8 C 40 % 1032,2 hPa 0,0 l/m 5,6 km/h (1 Bft) NO 45 4,1 C 17,9 C 7,0 km/h (2 Bft)
20.04.2019 14:44 17,8 C 18,8 C 39 % 1032,2 hPa 0,0 l/m 6,3 km/h (2 Bft) O-SO 112 3,7 C 17,8 C 7,0 km/h (2 Bft)
20.04.2019 14:42 17,7 C 18,6 C 39 % 1032,2 hPa 0,0 l/m 6,5 km/h (2 Bft) NW 315 3,6 C 17,7 C 6,0 km/h (2 Bft)
20.04.2019 14:40 17,6 C 18,3 C 39 % 1032,5 hPa 0,0 l/m 6,0 km/h (2 Bft) N-NO 22 3,5 C 17,6 C 4,6 km/h (1 Bft)
20.04.2019 14:38 17,7 C 18,4 C 39 % 1032,5 hPa 0,0 l/m 6,5 km/h (2 Bft) N-NO 22 3,6 C 17,7 C 5,8 km/h (2 Bft)
20.04.2019 14:36 17,8 C 18,5 C 40 % 1032,5 hPa 0,0 l/m 6,3 km/h (2 Bft) NO 45 4,0 C 17,8 C 9,2 km/h (2 Bft)
20.04.2019 14:34 17,7 C 18,4 C 39 % 1032,5 hPa 0,0 l/m 6,8 km/h (2 Bft) S-SW 202 3,6 C 17,5 C 9,2 km/h (2 Bft)
20.04.2019 14:32 18,0 C 19,0 C 40 % 1032,5 hPa 0,0 l/m 6,3 km/h (2 Bft) N-NW 337 4,2 C 18,0 C 8,0 km/h (2 Bft)
20.04.2019 14:30 18,0 C 19,1 C 40 % 1032,5 hPa 0,0 l/m 5,8 km/h (2 Bft) NO 45 4,2 C 18,0 C 5,6 km/h (1 Bft)
20.04.2019 14:28 17,9 C 18,7 C 40 % 1032,5 hPa 0,0 l/m 5,3 km/h (1 Bft) NO 45 4,1 C 17,9 C 7,5 km/h (2 Bft)
20.04.2019 14:26 17,8 C 18,6 C 40 % 1032,5 hPa 0,0 l/m 5,6 km/h (1 Bft) O-SO 112 4,0 C 17,8 C 10,9 km/h (2 Bft)
20.04.2019 14:24 17,7 C 18,6 C 40 % 1032,5 hPa 0,0 l/m 5,3 km/h (1 Bft) N-NO 22 3,9 C 17,7 C 10,9 km/h (2 Bft)
20.04.2019 14:22 17,9 C 19,3 C 40 % 1032,5 hPa 0,0 l/m 4,6 km/h (1 Bft) W-SW 247 4,1 C 17,9 C 6,8 km/h (2 Bft)
20.04.2019 14:20 17,8 C 19,4 C 40 % 1032,6 hPa 0,0 l/m 4,1 km/h (1 Bft) SO 135 4,0 C 17,8 C 4,3 km/h (1 Bft)
20.04.2019 14:18 17,6 C 18,8 C 40 % 1032,6 hPa 0,0 l/m 4,6 km/h (1 Bft) N-NW 337 3,8 C 17,6 C 6,3 km/h (2 Bft)
20.04.2019 14:16 17,7 C 18,9 C 40 % 1032,6 hPa 0,0 l/m 5,1 km/h (1 Bft) W-SW 247 3,9 C 17,7 C 6,3 km/h (2 Bft)
20.04.2019 14:14 17,7 C 19,1 C 40 % 1032,6 hPa 0,0 l/m 4,8 km/h (1 Bft) NO 45 3,9 C 17,7 C 6,3 km/h (2 Bft)
20.04.2019 14:12 17,5 C 18,8 C 40 % 1032,6 hPa 0,0 l/m 5,6 km/h (1 Bft) O-SO 112 3,8 C 17,5 C 4,6 km/h (1 Bft)
20.04.2019 14:10 17,3 C 18,2 C 39 % 1032,6 hPa 0,0 l/m 6,3 km/h (2 Bft) SW 225 3,2 C 17,3 C 10,1 km/h (2 Bft)
20.04.2019 14:08 17,4 C 18,4 C 40 % 1032,6 hPa 0,0 l/m 6,3 km/h (2 Bft) O-SO 112 3,7 C 17,4 C 10,1 km/h (2 Bft)
20.04.2019 14:06 17,4 C 18,9 C 40 % 1032,6 hPa 0,0 l/m 6,0 km/h (2 Bft) O-NO 67 3,7 C 17,4 C 8,2 km/h (2 Bft)
20.04.2019 14:04 17,1 C 18,1 C 39 % 1032,6 hPa 0,0 l/m 6,8 km/h (2 Bft) N-NO 22 3,0 C 16,9 C 8,2 km/h (2 Bft)
20.04.2019 14:02 17,2 C 18,4 C 39 % 1032,6 hPa 0,0 l/m 6,0 km/h (2 Bft) NO 45 3,1 C 17,2 C 8,9 km/h (2 Bft)
20.04.2019 14:00 17,3 C 18,6 C 40 % 1032,8 hPa 0,0 l/m 6,3 km/h (2 Bft) O 90 3,6 C 17,3 C 8,9 km/h (2 Bft)
20.04.2019 13:58 17,4 C 18,8 C 40 % 1032,8 hPa 0,0 l/m 7,2 km/h (2 Bft) SO 135 3,7 C 17,0 C 7,2 km/h (2 Bft)
20.04.2019 13:56 17,2 C 18,3 C 40 % 1032,8 hPa 0,0 l/m 8,2 km/h (2 Bft) NW 315 3,5 C 16,3 C 9,7 km/h (2 Bft)
20.04.2019 13:54 16,9 C 18,3 C 39 % 1032,8 hPa 0,0 l/m 8,0 km/h (2 Bft) O-NO 67 2,9 C 16,1 C 9,7 km/h (2 Bft)
20.04.2019 13:52 16,8 C 17,8 C 39 % 1032,8 hPa 0,0 l/m 8,4 km/h (2 Bft) O-SO 112 2,8 C 15,8 C 9,2 km/h (2 Bft)
20.04.2019 13:50 16,7 C 17,9 C 39 % 1032,8 hPa 0,0 l/m 8,7 km/h (2 Bft) O-NO 67 2,7 C 15,6 C 14,7 km/h (3 Bft)
20.04.2019 13:48 16,9 C 18,0 C 40 % 1032,8 hPa 0,0 l/m 8,7 km/h (2 Bft) O-NO 67 3,2 C 15,8 C 14,7 km/h (3 Bft)
20.04.2019 13:46 17,0 C 18,3 C 40 % 1032,8 hPa 0,0 l/m 7,7 km/h (2 Bft) NO 45 3,3 C 16,3 C 11,1 km/h (2 Bft)
20.04.2019 13:44 16,8 C 18,3 C 40 % 1032,8 hPa 0,0 l/m 8,0 km/h (2 Bft) SO 135 3,1 C 16,0 C 13,5 km/h (3 Bft)
20.04.2019 13:42 16,8 C 18,4 C 40 % 1032,8 hPa 0,0 l/m 7,7 km/h (2 Bft) O-SO 112 3,1 C 16,1 C 13,5 km/h (3 Bft)
20.04.2019 13:40 16,9 C 18,4 C 40 % 1033,0 hPa 0,0 l/m 7,5 km/h (2 Bft) N 360 3,2 C 16,3 C 12,1 km/h (2 Bft)
20.04.2019 13:38 16,7 C 18,2 C 39 % 1033,0 hPa 0,0 l/m 7,7 km/h (2 Bft) O-SO 112 2,7 C 16,0 C 12,1 km/h (2 Bft)
20.04.2019 13:36 16,8 C 18,2 C 40 % 1033,0 hPa 0,0 l/m 7,7 km/h (2 Bft) S-SO 157 3,1 C 16,1 C 8,4 km/h (2 Bft)
20.04.2019 13:34 16,5 C 17,9 C 39 % 1033,0 hPa 0,0 l/m 7,7 km/h (2 Bft) NO 45 2,5 C 15,8 C 8,4 km/h (2 Bft)
20.04.2019 13:32 16,5 C 18,1 C 39 % 1033,0 hPa 0,0 l/m 8,0 km/h (2 Bft) O-NO 67 2,5 C 15,7 C 8,4 km/h (2 Bft)
20.04.2019 13:30 16,7 C 18,1 C 39 % 1033,0 hPa 0,0 l/m 8,4 km/h (2 Bft) O-NO 67 2,7 C 15,7 C 11,8 km/h (2 Bft)
20.04.2019 13:28 16,9 C 18,4 C 40 % 1033,0 hPa 0,0 l/m 8,2 km/h (2 Bft) SO 135 3,2 C 16,0 C 11,8 km/h (2 Bft)
20.04.2019 13:26 16,9 C 18,5 C 40 % 1033,0 hPa 0,0 l/m 7,7 km/h (2 Bft) SO 135 3,2 C 16,2 C 13,0 km/h (3 Bft)
20.04.2019 13:24 16,8 C 18,2 C 40 % 1033,0 hPa 0,0 l/m 8,0 km/h (2 Bft) O-NO 67 3,1 C 16,0 C 13,0 km/h (3 Bft)
20.04.2019 13:22 16,8 C 18,3 C 40 % 1033,0 hPa 0,0 l/m 8,0 km/h (2 Bft) O-NO 67 3,1 C 16,0 C 12,6 km/h (3 Bft)
20.04.2019 13:20 16,5 C 18,1 C 39 % 1033,0 hPa 0,0 l/m 8,4 km/h (2 Bft) SO 135 2,5 C 15,5 C 15,0 km/h (3 Bft)
20.04.2019 13:18 16,8 C 18,4 C 40 % 1033,0 hPa 0,0 l/m 8,4 km/h (2 Bft) O-NO 67 3,1 C 15,8 C 15,7 km/h (3 Bft)
20.04.2019 13:16 16,4 C 18,2 C 39 % 1033,0 hPa 0,0 l/m 9,2 km/h (2 Bft) O 90 2,4 C 15,0 C 15,7 km/h (3 Bft)
20.04.2019 13:14 16,5 C 18,2 C 39 % 1033,0 hPa 0,0 l/m 8,9 km/h (2 Bft) NO 45 2,5 C 15,3 C 12,1 km/h (2 Bft)
20.04.2019 13:12 16,4 C 18,1 C 39 % 1033,0 hPa 0,0 l/m 9,7 km/h (2 Bft) SO 135 2,4 C 14,8 C 14,5 km/h (3 Bft)
20.04.2019 13:10 16,4 C 18,0 C 39 % 1033,0 hPa 0,0 l/m 9,4 km/h (2 Bft) S-SO 157 2,4 C 14,9 C 14,5 km/h (3 Bft)
20.04.2019 13:08 16,5 C 18,1 C 39 % 1033,0 hPa 0,0 l/m 9,9 km/h (2 Bft) SO 135 2,5 C 14,8 C 12,3 km/h (3 Bft)
20.04.2019 13:06 16,4 C 18,1 C 39 % 1033,0 hPa 0,0 l/m 9,2 km/h (2 Bft) NO 45 2,4 C 15,0 C 9,4 km/h (2 Bft)
20.04.2019 13:04 16,4 C 18,1 C 39 % 1033,0 hPa 0,0 l/m 8,7 km/h (2 Bft) O-SO 112 2,4 C 15,2 C 10,9 km/h (2 Bft)
20.04.2019 13:02 16,6 C 18,1 C 39 % 1033,0 hPa 0,0 l/m 8,9 km/h (2 Bft) O-SO 112 2,6 C 15,4 C 15,4 km/h (3 Bft)
20.04.2019 13:00 16,7 C 18,1 C 39 % 1033,1 hPa 0,0 l/m 8,0 km/h (2 Bft) NO 45 2,7 C 15,9 C 15,4 km/h (3 Bft)
_ Min-Zeit 06:32 06:30 18:04 12:42 - 20:58 - - 06:32 06:54 18:42
Minimum _ 4,0 C 2,8 C 36 % 1025,9 hPa - 0,0 km/h (0 Bft) - - -2,8 C -2,3 C 0,0 km/h (0 Bft)
_ Max-Zeit 15:32 16:00 06:34 13:00 13:00 03:34 - - 14:30 15:32 02:06
Maximum _ 18,1 C 19,7 C 62 % 1033,1 hPa 0,0 l/m 21,0 km/h
W-SW (4 Bft)
- - 4,2 C 18,1 C 31,4 km/h
W-SW (5 Bft)
Durchschnitt _ 12,1 C 11,7 C 46 % 1029,8 hPa #0,0 l/m 8,7 km/h (2 Bft) SW - 0,4 C 9,9 C 11,7 km/h (2 Bft)